Observation data for Persimmon Gap on 12/09/2018      Previous  Date  Next       Current Mesonet Observations  Soil Data  Daily Summary Page  Observations in Plain Language
KPG1 090600Z 02004KT 06/04 A303 RMK A01 T00590043  RH  089%=      5-min Rain = 0
KPG1 090601Z 02003KT 06/04 A303 RMK A01 T00580043  RH  090%=      5-min Rain = 0
KPG1 090602Z 03004KT 06/04 A303 RMK A01 T00570042  RH  090%=      5-min Rain = 0
KPG1 090603Z 03005KT 06/04 A303 RMK A01 T00560043  RH  091%=      5-min Rain = 0
KPG1 090604Z 03005KT 06/04 A303 RMK A01 T00550042  RH  092%=      5-min Rain = 0
KPG1 090605Z 03005KT 05/04 A303 RMK A01 T00540042  RH  092%=      5-min Rain = 0
KPG1 090606Z 02004KT 05/04 A303 RMK A01 T00540043  RH  093%=      5-min Rain = 0
KPG1 090607Z 02005KT 06/04 A303 RMK A01 T00550044  RH  093%=      5-min Rain = 0
KPG1 090608Z 02004KT 06/05 A303 RMK A01 T00560045  RH  093%=      5-min Rain = 0
KPG1 090609Z 02003KT 06/04 A303 RMK A01 T00560044  RH  092%=      5-min Rain = 0
KPG1 090610Z 03003KT 06/04 A303 RMK A01 T00560044  RH  092%=      5-min Rain = 0
KPG1 090611Z 02004KT 06/04 A303 RMK A01 T00560044  RH  092%=      5-min Rain = 0
KPG1 090612Z 02003KT 06/05 A303 RMK A01 T00570045  RH  092%=      5-min Rain = 0
KPG1 090613Z 02003KT 06/04 A303 RMK A01 T00570044  RH  092%=      5-min Rain = 0
KPG1 090614Z 02002KT 06/04 A303 RMK A01 T00570044  RH  091%=      5-min Rain = 0
KPG1 090615Z 01003KT 06/04 A303 RMK A01 T00550042  RH  091%=      5-min Rain = 0
KPG1 090616Z 01003KT 06/04 A303 RMK A01 T00550042  RH  092%=      5-min Rain = 0
KPG1 090617Z 00002KT 06/04 A303 RMK A01 T00560044  RH  092%=      5-min Rain = 0
KPG1 090618Z 00003KT 06/05 A303 RMK A01 T00570045  RH  092%=      5-min Rain = 0
KPG1 090619Z 01003KT 06/04 A303 RMK A01 T00570044  RH  091%=      5-min Rain = 0
KPG1 090620Z 02003KT 06/04 A303 RMK A01 T00580044  RH  091%=      5-min Rain = 0
KPG1 090621Z 02003KT 06/04 A303 RMK A01 T00590044  RH  090%=      5-min Rain = 0
KPG1 090622Z 03004KT 06/04 A303 RMK A01 T00600043  RH  089%=      5-min Rain = 0
KPG1 090623Z 02003KT 06/04 A303 RMK A01 T00600042  RH  089%=      5-min Rain = 0
KPG1 090624Z 01003KT 06/04 A303 RMK A01 T00600042  RH  088%=      5-min Rain = 0
KPG1 090625Z 02003KT 06/04 A303 RMK A01 T00600042  RH  088%=      5-min Rain = 0
KPG1 090626Z 02004KT 06/04 A303 RMK A01 T00600042  RH  088%=      5-min Rain = 0
KPG1 090627Z 01004KT 06/04 A303 RMK A01 T00580040  RH  088%=      5-min Rain = 0
KPG1 090628Z 01004KT 06/04 A303 RMK A01 T00570040  RH  089%=      5-min Rain = 0
KPG1 090629Z 00004KT 06/04 A303 RMK A01 T00560040  RH  090%=      5-min Rain = 0
KPG1 090630Z 00004KT 06/04 A303 RMK A01 T00560041  RH  090%=      5-min Rain = 0
KPG1 090631Z 01004KT 06/04 A303 RMK A01 T00550040  RH  090%=      5-min Rain = 0
KPG1 090632Z 02004KT 06/04 A303 RMK A01 T00550041  RH  091%=      5-min Rain = 0
KPG1 090633Z 03004KT 05/04 A303 RMK A01 T00530040  RH  091%=      5-min Rain = 0
KPG1 090634Z 02004KT 05/04 A303 RMK A01 T00520039  RH  091%=      5-min Rain = 0
KPG1 090635Z 01004KT 05/04 A303 RMK A01 T00520039  RH  091%=      5-min Rain = 0
KPG1 090636Z 02004KT 05/04 A303 RMK A01 T00510039  RH  092%=      5-min Rain = 0
KPG1 090637Z 03004KT 05/04 A303 RMK A01 T00510040  RH  092%=      5-min Rain = 0
KPG1 090638Z 03004KT 05/04 A303 RMK A01 T00510040  RH  092%=      5-min Rain = 0
KPG1 090639Z 02003KT 05/04 A303 RMK A01 T00500039  RH  093%=      5-min Rain = 0
KPG1 090640Z 02005KT 05/04 A303 RMK A01 T00500039  RH  093%=      5-min Rain = 0
KPG1 090641Z 02005KT 05/04 A303 RMK A01 T00490038  RH  093%=      5-min Rain = 0
KPG1 090642Z 02004KT 05/04 A303 RMK A01 T00490039  RH  093%=      5-min Rain = 0
KPG1 090643Z 02005KT 05/04 A303 RMK A01 T00480039  RH  093%=      5-min Rain = 0
KPG1 090644Z 02005KT 05/04 A303 RMK A01 T00480039  RH  094%=      5-min Rain = 0
KPG1 090645Z 02005KT 05/04 A303 RMK A01 T00480039  RH  094%=      5-min Rain = 0
KPG1 090646Z 03005KT 05/04 A3029 RMK A01 T00480039  RH  094%=      5-min Rain = 0
KPG1 090647Z 03006KT 05/04 A3029 RMK A01 T00480040  RH  094%=      5-min Rain = 0
KPG1 090648Z 03006KT 05/04 A3029 RMK A01 T00480040  RH  094%=      5-min Rain = 0
KPG1 090649Z 03006KT 05/04 A3029 RMK A01 T00490041  RH  094%=      5-min Rain = 0
KPG1 090650Z 03006KT 05/04 A3029 RMK A01 T00500041  RH  094%=      5-min Rain = 0
KPG1 090651Z 03006KT 05/04 A3029 RMK A01 T00500041  RH  094%=      5-min Rain = 0
KPG1 090652Z 03006KT 05/04 A3029 RMK A01 T00500041  RH  094%=      5-min Rain = 0
KPG1 090653Z 03006KT 05/04 A3029 RMK A01 T00510042  RH  094%=      5-min Rain = 0
KPG1 090654Z 03006KT 05/04 A3029 RMK A01 T00520043  RH  094%=      5-min Rain = 0
KPG1 090655Z 03007KT 05/04 A3029 RMK A01 T00520042  RH  093%=      5-min Rain = 0
KPG1 090656Z 03006KT 05/04 A3029 RMK A01 T00530042  RH  093%=      5-min Rain = 0
KPG1 090657Z 03007KT 05/04 A3029 RMK A01 T00530043  RH  093%=      5-min Rain = 0
KPG1 090658Z 03007KT 05/04 A3029 RMK A01 T00540043  RH  093%=      5-min Rain = 0
KPG1 090659Z 03007KT 05/04 A3029 RMK A01 T00540043  RH  092%=      5-min Rain = 0
KPG1 090700Z 03007KT 05/04 A3029 RMK A01 T00540042  RH  092%=      5-min Rain = 0
KPG1 090701Z 03007KT 05/04 A3029 RMK A01 T00540042  RH  092%=      5-min Rain = 0
KPG1 090702Z 03007KT 05/04 A3029 RMK A01 T00540042  RH  092%=      5-min Rain = 0
KPG1 090703Z 03007KT 05/04 A3029 RMK A01 T00540041  RH  092%=      5-min Rain = 0
KPG1 090704Z 03007KT 05/04 A3029 RMK A01 T00530041  RH  092%=      5-min Rain = 0
KPG1 090705Z 03007KT 05/04 A3029 RMK A01 T00530041  RH  092%=      5-min Rain = 0
KPG1 090706Z 03007KT 05/04 A3029 RMK A01 T00530041  RH  092%=      5-min Rain = 0
KPG1 090707Z 03007KT 05/04 A3029 RMK A01 T00530041  RH  092%=      5-min Rain = 0
KPG1 090708Z 02007KT 05/04 A3029 RMK A01 T00530041  RH  092%=      5-min Rain = 0
KPG1 090709Z 02007KT 05/04 A3029 RMK A01 T00540041  RH  091%=      5-min Rain = 0
KPG1 090710Z 02007KT 05/04 A3029 RMK A01 T00540040  RH  091%=      5-min Rain = 0
KPG1 090711Z 02007KT 05/04 A3029 RMK A01 T00540040  RH  091%=      5-min Rain = 0
KPG1 090712Z 02007KT 05/04 A3029 RMK A01 T00540040  RH  091%=      5-min Rain = 0
KPG1 090713Z 03006KT 05/04 A3029 RMK A01 T00540040  RH  091%=      5-min Rain = 0
KPG1 090714Z 03006KT 05/04 A3029 RMK A01 T00530040  RH  091%=      5-min Rain = 0
KPG1 090715Z 03006KT 05/04 A3029 RMK A01 T00530039  RH  091%=      5-min Rain = 0
KPG1 090716Z 03006KT 05/04 A3029 RMK A01 T00520039  RH  091%=      5-min Rain = 0
KPG1 090717Z 03006KT 05/04 A3029 RMK A01 T00520039  RH  091%=      5-min Rain = 0
KPG1 090718Z 03006KT 05/04 A3029 RMK A01 T00520039  RH  092%=      5-min Rain = 0
KPG1 090719Z 03006KT 05/04 A3029 RMK A01 T00510039  RH  092%=      5-min Rain = 0
KPG1 090720Z 03006KT 05/04 A3029 RMK A01 T00510039  RH  092%=      5-min Rain = 0
KPG1 090721Z 03006KT 05/04 A3029 RMK A01 T00520039  RH  091%=      5-min Rain = 0
KPG1 090722Z 03006KT 05/04 A3029 RMK A01 T00520039  RH  091%=      5-min Rain = 0
KPG1 090723Z 02006KT 05/04 A3029 RMK A01 T00510038  RH  091%=      5-min Rain = 0
KPG1 090724Z 02006KT 05/04 A3029 RMK A01 T00510038  RH  091%=      5-min Rain = 0
KPG1 090725Z 02006KT 05/04 A3029 RMK A01 T00510038  RH  091%=      5-min Rain = 0
KPG1 090726Z 02006KT 05/04 A3029 RMK A01 T00510038  RH  091%=      5-min Rain = 0
KPG1 090727Z 02006KT 05/04 A3029 RMK A01 T00510038  RH  091%=      5-min Rain = 0
KPG1 090728Z 02006KT 05/04 A3029 RMK A01 T00510038  RH  091%=      5-min Rain = 0
KPG1 090729Z 02006KT 05/04 A3029 RMK A01 T00510038  RH  091%=      5-min Rain = 0
KPG1 090730Z 03006KT 05/04 A3029 RMK A01 T00520038  RH  091%=      5-min Rain = 0
KPG1 090731Z 02006KT 05/04 A3029 RMK A01 T00510038  RH  091%=      5-min Rain = 0
KPG1 090732Z 02007KT 05/04 A3029 RMK A01 T00510038  RH  091%=      5-min Rain = 0
KPG1 090733Z 02007KT 05/04 A3029 RMK A01 T00510038  RH  091%=      5-min Rain = 0
KPG1 090734Z 02006KT 05/04 A3029 RMK A01 T00510038  RH  091%=      5-min Rain = 0
KPG1 090735Z 02006KT 05/04 A3029 RMK A01 T00510038  RH  091%=      5-min Rain = 0
KPG1 090736Z 02007KT 05/04 A3029 RMK A01 T00510038  RH  091%=      5-min Rain = 0
KPG1 090737Z 03006KT 05/04 A3029 RMK A01 T00510038  RH  091%=      5-min Rain = 0
KPG1 090738Z 02007KT 05/04 A3029 RMK A01 T00510038  RH  091%=      5-min Rain = 0
KPG1 090739Z 02007KT 05/04 A3029 RMK A01 T00510038  RH  091%=      5-min Rain = 0
KPG1 090740Z 02005KT 05/04 A3029 RMK A01 T00510038  RH  092%=      5-min Rain = 0
KPG1 090741Z 02006KT 05/04 A3029 RMK A01 T00500038  RH  092%=      5-min Rain = 0
KPG1 090742Z 02006KT 05/04 A3029 RMK A01 T00500038  RH  092%=      5-min Rain = 0
KPG1 090743Z 03006KT 05/04 A3029 RMK A01 T00500038  RH  092%=      5-min Rain = 0
KPG1 090744Z 03007KT 05/04 A3029 RMK A01 T00500037  RH  092%=      5-min Rain = 0
KPG1 090745Z 02007KT 05/04 A3029 RMK A01 T00500038  RH  092%=      5-min Rain = 0
KPG1 090746Z 02007KT 05/04 A3029 RMK A01 T00500037  RH  092%=      5-min Rain = 0
KPG1 090747Z 02007KT 05/04 A3029 RMK A01 T00500037  RH  092%=      5-min Rain = 0
KPG1 090748Z 02008KT 05/04 A3029 RMK A01 T00490037  RH  092%=      5-min Rain = 0
KPG1 090749Z 02008KT 05/04 A3029 RMK A01 T00490037  RH  092%=      5-min Rain = 0
KPG1 090750Z 02008KT 05/04 A3029 RMK A01 T00490037  RH  092%=      5-min Rain = 0
KPG1 090751Z 02008KT 05/04 A3029 RMK A01 T00480037  RH  092%=      5-min Rain = 0
KPG1 090752Z 02008KT 05/04 A3029 RMK A01 T00480037  RH  093%=      5-min Rain = 0
KPG1 090753Z 02008KT 05/04 A3029 RMK A01 T00480037  RH  093%=      5-min Rain = 0
KPG1 090754Z 02008KT 05/04 A3029 RMK A01 T00480037  RH  092%=      5-min Rain = 0
KPG1 090755Z 02007KT 05/04 A3029 RMK A01 T00480037  RH  092%=      5-min Rain = 0
KPG1 090756Z 02007KT 05/04 A3029 RMK A01 T00480037  RH  092%=      5-min Rain = 0
KPG1 090757Z 02006KT 05/04 A3029 RMK A01 T00480037  RH  092%=      5-min Rain = 0
KPG1 090758Z 02006KT 05/04 A3029 RMK A01 T00480037  RH  092%=      5-min Rain = 0
KPG1 090759Z 02006KT 05/04 A3029 RMK A01 T00470036  RH  092%=      5-min Rain = 0
KPG1 090800Z 02006KT 05/04 A3029 RMK A01 T00470036  RH  093%=      5-min Rain = 0
KPG1 090801Z 02005KT 05/04 A3029 RMK A01 T00470036  RH  093%=      5-min Rain = 0
KPG1 090802Z 02006KT 05/04 A3029 RMK A01 T00470037  RH  093%=      5-min Rain = 0
KPG1 090803Z 02006KT 05/04 A3029 RMK A01 T00470036  RH  093%=      5-min Rain = 0
KPG1 090804Z 02007KT 05/04 A3029 RMK A01 T00460036  RH  093%=      5-min Rain = 0
KPG1 090805Z 02007KT 05/04 A3029 RMK A01 T00460036  RH  093%=      5-min Rain = 0
KPG1 090806Z 02007KT 05/04 A3029 RMK A01 T00460036  RH  093%=      5-min Rain = 0
KPG1 090807Z 02007KT 05/04 A3029 RMK A01 T00460036  RH  094%=      5-min Rain = 0
KPG1 090808Z 02007KT 05/04 A3029 RMK A01 T00460036  RH  094%=      5-min Rain = 0
KPG1 090809Z 02007KT 05/04 A3029 RMK A01 T00460036  RH  094%=      5-min Rain = 0
KPG1 090810Z 01006KT 05/04 A3029 RMK A01 T00460037  RH  094%=      5-min Rain = 0
KPG1 090811Z 01006KT 05/04 A3029 RMK A01 T00470037  RH  093%=      5-min Rain = 0
KPG1 090812Z 01005KT 05/04 A3029 RMK A01 T00480038  RH  093%=      5-min Rain = 0
KPG1 090813Z 00004KT 05/04 A3029 RMK A01 T00490038  RH  093%=      5-min Rain = 0
KPG1 090814Z 02005KT 05/04 A3029 RMK A01 T00490038  RH  092%=      5-min Rain = 0
KPG1 090815Z 02006KT 05/04 A3029 RMK A01 T00490037  RH  092%=      5-min Rain = 0
KPG1 090816Z 02006KT 05/04 A3029 RMK A01 T00490036  RH  092%=      5-min Rain = 0
KPG1 090817Z 02006KT 05/04 A3029 RMK A01 T00480036  RH  092%=      5-min Rain = 0
KPG1 090818Z 03006KT 05/04 A3029 RMK A01 T00480036  RH  092%=      5-min Rain = 0
KPG1 090819Z 03005KT 05/04 A3029 RMK A01 T00480036  RH  092%=      5-min Rain = 0
KPG1 090820Z 03005KT 05/04 A3029 RMK A01 T00470035  RH  092%=      5-min Rain = 0
KPG1 090821Z 02005KT 05/04 A3029 RMK A01 T00470036  RH  092%=      5-min Rain = 0
KPG1 090822Z 03005KT 05/04 A3029 RMK A01 T00470036  RH  093%=      5-min Rain = 0
KPG1 090823Z 03005KT 05/04 A3029 RMK A01 T00470036  RH  093%=      5-min Rain = 0
KPG1 090824Z 03005KT 05/04 A3029 RMK A01 T00470036  RH  092%=      5-min Rain = 0
KPG1 090825Z 03005KT 05/04 A3028 RMK A01 T00470036  RH  092%=      5-min Rain = 0
KPG1 090826Z 03005KT 05/04 A3028 RMK A01 T00470036  RH  093%=      5-min Rain = 0
KPG1 090827Z 02005KT 05/04 A3028 RMK A01 T00460035  RH  093%=      5-min Rain = 0
KPG1 090828Z 02005KT 05/04 A3028 RMK A01 T00460036  RH  093%=      5-min Rain = 0
KPG1 090829Z 02005KT 05/04 A3029 RMK A01 T00470036  RH  093%=      5-min Rain = 0
KPG1 090830Z 02006KT 05/04 A3029 RMK A01 T00470036  RH  093%=      5-min Rain = 0
KPG1 090831Z 02005KT 05/04 A3029 RMK A01 T00460035  RH  093%=      5-min Rain = 0
KPG1 090832Z 03005KT 05/04 A3029 RMK A01 T00460035  RH  093%=      5-min Rain = 0
KPG1 090833Z 03004KT 05/04 A3028 RMK A01 T00460036  RH  093%=      5-min Rain = 0
KPG1 090834Z 03005KT 05/04 A3028 RMK A01 T00460036  RH  093%=      5-min Rain = 0
KPG1 090835Z 02006KT 05/04 A3028 RMK A01 T00460036  RH  093%=      5-min Rain = 0
KPG1 090836Z 02006KT 05/04 A3028 RMK A01 T00470036  RH  093%=      5-min Rain = 0
KPG1 090837Z 01006KT 05/04 A3028 RMK A01 T00470037  RH  093%=      5-min Rain = 0
KPG1 090838Z 01005KT 05/04 A3028 RMK A01 T00480037  RH  093%=      5-min Rain = 0
KPG1 090839Z 01006KT 05/04 A3028 RMK A01 T00480037  RH  092%=      5-min Rain = 0
KPG1 090840Z 00004KT 05/04 A3028 RMK A01 T00480037  RH  092%=      5-min Rain = 0
KPG1 090841Z 01005KT 05/04 A3028 RMK A01 T00470035  RH  092%=      5-min Rain = 0
KPG1 090842Z 01004KT 05/04 A3028 RMK A01 T00470035  RH  092%=      5-min Rain = 0
KPG1 090843Z 03005KT 05/04 A3028 RMK A01 T00470035  RH  092%=      5-min Rain = 0
KPG1 090844Z 03004KT 05/03 A3028 RMK A01 T00460034  RH  092%=      5-min Rain = 0
KPG1 090845Z 01004KT 05/03 A3028 RMK A01 T00450034  RH  093%=      5-min Rain = 0
KPG1 090846Z 01004KT 05/03 A3028 RMK A01 T00450034  RH  093%=      5-min Rain = 0
KPG1 090847Z 02005KT 04/04 A3028 RMK A01 T00440035  RH  093%=      5-min Rain = 0
KPG1 090848Z 02004KT 05/04 A3028 RMK A01 T00450036  RH  094%=      5-min Rain = 0
KPG1 090849Z 02004KT 05/04 A3028 RMK A01 T00460037  RH  094%=      5-min Rain = 0
KPG1 090850Z 02004KT 05/04 A3028 RMK A01 T00460036  RH  093%=      5-min Rain = 0
KPG1 090851Z 03004KT 05/04 A3028 RMK A01 T00460036  RH  093%=      5-min Rain = 0
KPG1 090852Z 03004KT 05/04 A3028 RMK A01 T00460035  RH  093%=      5-min Rain = 0
KPG1 090853Z 03004KT 05/04 A3028 RMK A01 T00450035  RH  093%=      5-min Rain = 0
KPG1 090854Z 03005KT 04/03 A3028 RMK A01 T00440034  RH  093%=      5-min Rain = 0
KPG1 090855Z 02005KT 04/03 A3028 RMK A01 T00440034  RH  093%=      5-min Rain = 0
KPG1 090856Z 02005KT 04/04 A3028 RMK A01 T00440035  RH  093%=      5-min Rain = 0
KPG1 090857Z 03005KT 04/04 A3028 RMK A01 T00440035  RH  094%=      5-min Rain = 0
KPG1 090858Z 02004KT 05/04 A3028 RMK A01 T00450035  RH  093%=      5-min Rain = 0
KPG1 090859Z 02004KT 05/04 A3028 RMK A01 T00450035  RH  093%=      5-min Rain = 0
KPG1 090900Z 01003KT 04/03 A3028 RMK A01 T00440034  RH  093%=      5-min Rain = 0
KPG1 090901Z 00002KT 04/03 A3028 RMK A01 T00440034  RH  093%=      5-min Rain = 0
KPG1 090902Z 01002KT 04/04 A3028 RMK A01 T00440035  RH  094%=      5-min Rain = 0
KPG1 090903Z 01001KT 05/04 A3028 RMK A01 T00450036  RH  094%=      5-min Rain = 0
KPG1 090904Z 02000KT 05/04 A3028 RMK A01 T00450037  RH  094%=      5-min Rain = 0
KPG1 090905Z 02000KT 05/04 A3028 RMK A01 T00460037  RH  094%=      5-min Rain = 0
KPG1 090906Z 02000KT 05/04 A3028 RMK A01 T00450035  RH  094%=      5-min Rain = 0
KPG1 090907Z 00000KT 04/03 A3027 RMK A01 T00440034  RH  093%=      5-min Rain = 0
KPG1 090908Z 00000KT 04/03 A3027 RMK A01 T00430033  RH  093%=      5-min Rain = 0
KPG1 090909Z 00000KT 04/03 A3027 RMK A01 T00430033  RH  093%=      5-min Rain = 0
KPG1 090910Z 00000KT 04/03 A3027 RMK A01 T00420033  RH  094%=      5-min Rain = 0
KPG1 090911Z 00000KT 04/03 A3028 RMK A01 T00420033  RH  094%=      5-min Rain = 0
KPG1 090912Z 00000KT 04/03 A3028 RMK A01 T00420033  RH  094%=      5-min Rain = 0
KPG1 090913Z 00000KT 04/03 A3028 RMK A01 T00410032  RH  094%=      5-min Rain = 0
KPG1 090914Z 00000KT 04/03 A3028 RMK A01 T00410032  RH  094%=      5-min Rain = 0
KPG1 090915Z 00000KT 04/03 A3028 RMK A01 T00400031  RH  094%=      5-min Rain = 0
KPG1 090916Z 00000KT 04/03 A3028 RMK A01 T00400032  RH  094%=      5-min Rain = 0
KPG1 090917Z 02001KT 04/03 A3028 RMK A01 T00400032  RH  095%=      5-min Rain = 0
KPG1 090918Z 02001KT 04/03 A3028 RMK A01 T00400032  RH  095%=      5-min Rain = 0
KPG1 090919Z 01001KT 04/03 A3028 RMK A01 T00400032  RH  095%=      5-min Rain = 0
KPG1 090920Z 33001KT 04/03 A3028 RMK A01 T00410034  RH  095%=      5-min Rain = 0
KPG1 090921Z 32001KT 04/03 A3028 RMK A01 T00410034  RH  095%=      5-min Rain = 0
KPG1 090922Z 33001KT 04/03 A3028 RMK A01 T00410034  RH  095%=      5-min Rain = 0
KPG1 090923Z 34002KT 04/03 A3028 RMK A01 T00410034  RH  096%=      5-min Rain = 0
KPG1 090924Z 34001KT 04/04 A3028 RMK A01 T00410035  RH  096%=      5-min Rain = 0
KPG1 090925Z 35001KT 04/04 A3028 RMK A01 T00410035  RH  096%=      5-min Rain = 0
KPG1 090926Z 35001KT 04/03 A3028 RMK A01 T00390032  RH  095%=      5-min Rain = 0
KPG1 090927Z 36001KT 04/03 A3028 RMK A01 T00360027  RH  094%=      5-min Rain = 0
KPG1 090928Z 01002KT 03/03 A3028 RMK A01 T00340026  RH  094%=      5-min Rain = 0
KPG1 090929Z 01002KT 03/03 A3028 RMK A01 T00330026  RH  095%=      5-min Rain = 0
KPG1 090930Z 02002KT 03/03 A3027 RMK A01 T00330026  RH  095%=      5-min Rain = 0
KPG1 090931Z 04002KT 03/03 A3027 RMK A01 T00330026  RH  095%=      5-min Rain = 0
KPG1 090932Z 05003KT 03/03 A3027 RMK A01 T00320026  RH  096%=      5-min Rain = 0
KPG1 090933Z 05003KT 03/03 A3027 RMK A01 T00330027  RH  096%=      5-min Rain = 0
KPG1 090934Z 05003KT 03/03 A3027 RMK A01 T00340029  RH  097%=      5-min Rain = 0
KPG1 090935Z 05003KT 03/03 A3027 RMK A01 T00340029  RH  097%=      5-min Rain = 0
KPG1 090936Z 04003KT 03/03 A3027 RMK A01 T00340029  RH  097%=      5-min Rain = 0
KPG1 090937Z 04003KT 03/03 A3027 RMK A01 T00340030  RH  097%=      5-min Rain = 0
KPG1 090938Z 04003KT 03/03 A3027 RMK A01 T00340029  RH  097%=      5-min Rain = 0
KPG1 090939Z 04002KT 03/03 A3027 RMK A01 T00330028  RH  097%=      5-min Rain = 0
KPG1 090940Z 05002KT 03/03 A3027 RMK A01 T00330028  RH  097%=      5-min Rain = 0
KPG1 090941Z 04002KT 03/03 A3028 RMK A01 T00330028  RH  097%=      5-min Rain = 0
KPG1 090942Z 04002KT 03/03 A3028 RMK A01 T00340030  RH  097%=      5-min Rain = 0
KPG1 090943Z 03003KT 04/03 A3028 RMK A01 T00350031  RH  097%=      5-min Rain = 0
KPG1 090944Z 03002KT 04/03 A3028 RMK A01 T00360032  RH  097%=      5-min Rain = 0
KPG1 090945Z 03003KT 04/03 A3028 RMK A01 T00370034  RH  097%=      5-min Rain = 0
KPG1 090946Z 04004KT 04/03 A3028 RMK A01 T00380034  RH  097%=      5-min Rain = 0
KPG1 090947Z 03003KT 04/03 A3028 RMK A01 T00380033  RH  097%=      5-min Rain = 0
KPG1 090948Z 02003KT 04/03 A3028 RMK A01 T00360031  RH  097%=      5-min Rain = 0
KPG1 090949Z 01003KT 04/03 A3027 RMK A01 T00370032  RH  097%=      5-min Rain = 0
KPG1 090950Z 01003KT 04/03 A3027 RMK A01 T00380033  RH  097%=      5-min Rain = 0
KPG1 090951Z 01003KT 04/03 A3027 RMK A01 T00380034  RH  097%=      5-min Rain = 0
KPG1 090952Z 02003KT 04/03 A3027 RMK A01 T00380033  RH  097%=      5-min Rain = 0
KPG1 090953Z 02003KT 04/03 A3027 RMK A01 T00370031  RH  096%=      5-min Rain = 0
KPG1 090954Z 01003KT 04/03 A3027 RMK A01 T00360031  RH  096%=      5-min Rain = 0
KPG1 090955Z 36003KT 04/03 A3028 RMK A01 T00360031  RH  096%=      5-min Rain = 0
KPG1 090956Z 35003KT 04/03 A3028 RMK A01 T00360031  RH  097%=      5-min Rain = 0
KPG1 090957Z 36003KT 04/03 A3028 RMK A01 T00370032  RH  097%=      5-min Rain = 0
KPG1 090958Z 00003KT 04/03 A3028 RMK A01 T00370032  RH  097%=      5-min Rain = 0
KPG1 090959Z 00003KT 04/03 A3028 RMK A01 T00370032  RH  097%=      5-min Rain = 0
KPG1 091000Z 01002KT 04/03 A3028 RMK A01 T00360031  RH  097%=      5-min Rain = 0
KPG1 091001Z 02003KT 04/03 A3028 RMK A01 T00360032  RH  097%=      5-min Rain = 0
KPG1 091002Z 03002KT 04/03 A3028 RMK A01 T00360032  RH  097%=      5-min Rain = 0
KPG1 091003Z 03002KT 04/03 A3028 RMK A01 T00360032  RH  097%=      5-min Rain = 0
KPG1 091004Z 04002KT 04/03 A3028 RMK A01 T00360032  RH  097%=      5-min Rain = 0
KPG1 091005Z 04002KT 04/03 A3028 RMK A01 T00360032  RH  097%=      5-min Rain = 0
KPG1 091006Z 04003KT 04/03 A3028 RMK A01 T00370032  RH  097%=      5-min Rain = 0
KPG1 091007Z 05003KT 04/03 A3028 RMK A01 T00370032  RH  097%=      5-min Rain = 0
KPG1 091008Z 04003KT 04/03 A3028 RMK A01 T00370032  RH  097%=      5-min Rain = 0
KPG1 091009Z 04003KT 04/03 A3028 RMK A01 T00370032  RH  097%=      5-min Rain = 0
KPG1 091010Z 04003KT 04/03 A3028 RMK A01 T00380034  RH  097%=      5-min Rain = 0
KPG1 091011Z 04003KT 04/03 A3028 RMK A01 T00390034  RH  097%=      5-min Rain = 0
KPG1 091012Z 04002KT 04/03 A3028 RMK A01 T00390034  RH  097%=      5-min Rain = 0
KPG1 091013Z 04002KT 04/03 A3028 RMK A01 T00380033  RH  097%=      5-min Rain = 0
KPG1 091014Z 04001KT 04/03 A3028 RMK A01 T00380033  RH  097%=      5-min Rain = 0
KPG1 091015Z 04001KT 04/03 A3028 RMK A01 T00380033  RH  097%=      5-min Rain = 0
KPG1 091016Z 11001KT 04/03 A3028 RMK A01 T00380034  RH  097%=      5-min Rain = 0
KPG1 091017Z 14002KT 04/03 A3028 RMK A01 T00380034  RH  097%=      5-min Rain = 0
KPG1 091018Z 14002KT 04/03 A3028 RMK A01 T00390034  RH  097%=      5-min Rain = 0
KPG1 091019Z 15002KT 04/03 A3028 RMK A01 T00390034  RH  097%=      5-min Rain = 0
KPG1 091020Z 15002KT 04/04 A3028 RMK A01 T00400035  RH  097%=      5-min Rain = 0
KPG1 091021Z 16002KT 04/04 A3028 RMK A01 T00400036  RH  097%=      5-min Rain = 0
KPG1 091022Z 17002KT 04/04 A3028 RMK A01 T00410036  RH  097%=      5-min Rain = 0
KPG1 091023Z 17002KT 04/04 A3028 RMK A01 T00400036  RH  097%=      5-min Rain = 0
KPG1 091024Z 17002KT 04/04 A3028 RMK A01 T00400036  RH  097%=      5-min Rain = 0
KPG1 091025Z 17003KT 04/04 A3028 RMK A01 T00410037  RH  097%=      5-min Rain = 0
KPG1 091026Z 17002KT 04/04 A3028 RMK A01 T00410037  RH  097%=      5-min Rain = 0
KPG1 091027Z 17002KT 04/04 A3028 RMK A01 T00410037  RH  097%=      5-min Rain = 0
KPG1 091028Z 17002KT 04/04 A3028 RMK A01 T00410037  RH  097%=      5-min Rain = 0
KPG1 091029Z 17002KT 04/04 A3028 RMK A01 T00400036  RH  097%=      5-min Rain = 0
KPG1 091030Z 17002KT 04/04 A3028 RMK A01 T00400036  RH  097%=      5-min Rain = 0
KPG1 091031Z 18002KT 04/04 A3028 RMK A01 T00400036  RH  097%=      5-min Rain = 0
KPG1 091032Z 18002KT 04/04 A3028 RMK A01 T00390035  RH  097%=      5-min Rain = 0
KPG1 091033Z 19002KT 04/04 A3028 RMK A01 T00390036  RH  097%=      5-min Rain = 0
KPG1 091034Z 19002KT 04/04 A3028 RMK A01 T00390036  RH  098%=      5-min Rain = 0
KPG1 091035Z 19001KT 04/04 A3028 RMK A01 T00390036  RH  098%=      5-min Rain = 0
KPG1 091036Z 19001KT 04/04 A3028 RMK A01 T00400036  RH  098%=      5-min Rain = 0
KPG1 091037Z 19001KT 04/04 A3028 RMK A01 T00400036  RH  098%=      5-min Rain = 0
KPG1 091038Z 19001KT 04/04 A3028 RMK A01 T00400036  RH  098%=      5-min Rain = 0
KPG1 091039Z 19002KT 04/04 A3028 RMK A01 T00400037  RH  098%=      5-min Rain = 0
KPG1 091040Z 19002KT 04/04 A3028 RMK A01 T00400037  RH  098%=      5-min Rain = 0
KPG1 091041Z 19001KT 04/04 A3028 RMK A01 T00400037  RH  098%=      5-min Rain = 0
KPG1 091042Z 19001KT 04/04 A3028 RMK A01 T00400037  RH  098%=      5-min Rain = 0
KPG1 091043Z 19002KT 04/04 A3028 RMK A01 T00400037  RH  098%=      5-min Rain = 0
KPG1 091044Z 18002KT 04/04 A3028 RMK A01 T00400037  RH  098%=      5-min Rain = 0
KPG1 091045Z 17003KT 04/04 A3028 RMK A01 T00400037  RH  098%=      5-min Rain = 0
KPG1 091046Z 17003KT 04/04 A3028 RMK A01 T00400037  RH  098%=      5-min Rain = 0
KPG1 091047Z 17003KT 04/04 A3028 RMK A01 T00400037  RH  098%=      5-min Rain = 0
KPG1 091048Z 16003KT 04/04 A3028 RMK A01 T00390036  RH  098%=      5-min Rain = 0
KPG1 091049Z 17003KT 04/04 A3028 RMK A01 T00390036  RH  098%=      5-min Rain = 0
KPG1 091050Z 17003KT 04/04 A3028 RMK A01 T00380036  RH  098%=      5-min Rain = 0
KPG1 091051Z 18003KT 04/04 A3028 RMK A01 T00380035  RH  098%=      5-min Rain = 0
KPG1 091052Z 18003KT 04/04 A3028 RMK A01 T00380035  RH  098%=      5-min Rain = 0
KPG1 091053Z 18003KT 04/04 A3028 RMK A01 T00370035  RH  098%=      5-min Rain = 0
KPG1 091054Z 18003KT 04/03 A3028 RMK A01 T00370034  RH  098%=      5-min Rain = 0
KPG1 091055Z 19003KT 04/03 A3028 RMK A01 T00360033  RH  098%=      5-min Rain = 0
KPG1 091056Z 19003KT 04/03 A3028 RMK A01 T00360033  RH  098%=      5-min Rain = 0
KPG1 091057Z 19002KT 03/03 A3028 RMK A01 T00340032  RH  098%=      5-min Rain = 0
KPG1 091058Z 20002KT 03/03 A3028 RMK A01 T00340031  RH  098%=      5-min Rain = 0
KPG1 091059Z 20002KT 03/03 A3028 RMK A01 T00330031  RH  098%=      5-min Rain = 0
KPG1 091100Z 20002KT 03/03 A3028 RMK A01 T00330031  RH  098%=      5-min Rain = 0
KPG1 091101Z 20002KT 03/03 A3028 RMK A01 T00330031  RH  098%=      5-min Rain = 0
KPG1 091102Z 20002KT 03/03 A3028 RMK A01 T00330031  RH  098%=      5-min Rain = 0
KPG1 091103Z 19002KT 03/03 A3028 RMK A01 T00330031  RH  099%=      5-min Rain = 0
KPG1 091104Z 19002KT 03/03 A3028 RMK A01 T00330031  RH  099%=      5-min Rain = 0
KPG1 091105Z 20002KT 03/03 A3028 RMK A01 T00330031  RH  099%=      5-min Rain = 0
KPG1 091106Z 20003KT 03/03 A3028 RMK A01 T00330031  RH  099%=      5-min Rain = 0
KPG1 091107Z 21003KT 03/03 A3028 RMK A01 T00330031  RH  099%=      5-min Rain = 0
KPG1 091108Z 21002KT 03/03 A3028 RMK A01 T00340032  RH  099%=      5-min Rain = 0
KPG1 091109Z 21002KT 03/03 A3028 RMK A01 T00340032  RH  099%=      5-min Rain = 0
KPG1 091110Z 20002KT 03/03 A3028 RMK A01 T00340032  RH  099%=      5-min Rain = 0
KPG1 091111Z 20002KT 03/03 A3028 RMK A01 T00340033  RH  099%=      5-min Rain = 0
KPG1 091112Z 21003KT 03/03 A3028 RMK A01 T00340033  RH  099%=      5-min Rain = 0
KPG1 091113Z 21003KT 03/03 A3028 RMK A01 T00340033  RH  099%=      5-min Rain = 0
KPG1 091114Z 21003KT 03/03 A3028 RMK A01 T00340032  RH  099%=      5-min Rain = 0
KPG1 091115Z 21003KT 03/03 A3028 RMK A01 T00340032  RH  099%=      5-min Rain = 0
KPG1 091116Z 22003KT 03/03 A3028 RMK A01 T00330032  RH  099%=      5-min Rain = 0
KPG1 091117Z 22003KT 03/03 A3028 RMK A01 T00330032  RH  099%=      5-min Rain = 0
KPG1 091118Z 22002KT 03/03 A3028 RMK A01 T00330031  RH  099%=      5-min Rain = 0
KPG1 091119Z 22002KT 03/03 A3028 RMK A01 T00330031  RH  099%=      5-min Rain = 0
KPG1 091120Z 24002KT 03/03 A3028 RMK A01 T00330031  RH  099%=      5-min Rain = 0
KPG1 091121Z 24002KT 03/03 A3028 RMK A01 T00320031  RH  099%=      5-min Rain = 0
KPG1 091122Z 25002KT 03/03 A3028 RMK A01 T00320031  RH  099%=      5-min Rain = 0
KPG1 091123Z 25002KT 03/03 A3028 RMK A01 T00320031  RH  099%=      5-min Rain = 0
KPG1 091124Z 24002KT 03/03 A3028 RMK A01 T00320031  RH  099%=      5-min Rain = 0
KPG1 091125Z 23002KT 03/03 A3028 RMK A01 T00330032  RH  099%=      5-min Rain = 0
KPG1 091126Z 22002KT 03/03 A3028 RMK A01 T00340032  RH  099%=      5-min Rain = 0
KPG1 091127Z 21002KT 03/03 A3028 RMK A01 T00340032  RH  099%=      5-min Rain = 0
KPG1 091128Z 22002KT 03/03 A3028 RMK A01 T00340033  RH  099%=      5-min Rain = 0
KPG1 091129Z 23002KT 03/03 A3028 RMK A01 T00340033  RH  099%=      5-min Rain = 0
KPG1 091130Z 23002KT 04/03 A3028 RMK A01 T00350034  RH  099%=      5-min Rain = 0
KPG1 091131Z 23002KT 04/04 A3028 RMK A01 T00360035  RH  099%=      5-min Rain = 0
KPG1 091132Z 23002KT 04/04 A3028 RMK A01 T00360035  RH  099%=      5-min Rain = 0
KPG1 091133Z 23002KT 04/04 A3028 RMK A01 T00360035  RH  099%=      5-min Rain = 0
KPG1 091134Z 23002KT 04/04 A3028 RMK A01 T00360035  RH  099%=      5-min Rain = 0
KPG1 091135Z 23002KT 04/04 A3028 RMK A01 T00360035  RH  099%=      5-min Rain = 0
KPG1 091136Z 21002KT 04/04 A3029 RMK A01 T00360036  RH  099%=      5-min Rain = 0
KPG1 091137Z 22002KT 04/04 A3028 RMK A01 T00360036  RH  099%=      5-min Rain = 0
KPG1 091138Z 21002KT 04/04 A3028 RMK A01 T00360036  RH  099%=      5-min Rain = 0
KPG1 091139Z 21002KT 04/04 A3028 RMK A01 T00360035  RH  099%=      5-min Rain = 0
KPG1 091140Z 21002KT 04/04 A3028 RMK A01 T00360035  RH  099%=      5-min Rain = 0
KPG1 091141Z 21003KT 04/04 A3028 RMK A01 T00360035  RH  099%=      5-min Rain = 0
KPG1 091142Z 22003KT 04/04 A3028 RMK A01 T00360036  RH  099%=      5-min Rain = 0
KPG1 091143Z 22003KT 04/04 A3028 RMK A01 T00370036  RH  100%=      5-min Rain = 0
KPG1 091144Z 22003KT 04/04 A3028 RMK A01 T00380037  RH  100%=      5-min Rain = 0
KPG1 091145Z 22003KT 04/04 A3028 RMK A01 T00380037  RH  100%=      5-min Rain = 0
KPG1 091146Z 22003KT 04/04 A3028 RMK A01 T00380038  RH  100%=      5-min Rain = 0
KPG1 091147Z 21003KT 04/04 A3028 RMK A01 T00380037  RH  100%=      5-min Rain = 0
KPG1 091148Z 21004KT 04/04 A3029 RMK A01 T00380038  RH  099%=      5-min Rain = 0
KPG1 091149Z 21004KT 04/04 A3029 RMK A01 T00380038  RH  099%=      5-min Rain = 0
KPG1 091150Z 21004KT 04/04 A3029 RMK A01 T00380037  RH  099%=      5-min Rain = 0
KPG1 091151Z 21004KT 04/04 A3029 RMK A01 T00380037  RH  099%=      5-min Rain = 0
KPG1 091152Z 21004KT 04/04 A3029 RMK A01 T00380037  RH  099%=      5-min Rain = 0
KPG1 091153Z 21003KT 04/04 A3029 RMK A01 T00380037  RH  099%=      5-min Rain = 0
KPG1 091154Z 20003KT 04/04 A3029 RMK A01 T00380037  RH  099%=      5-min Rain = 0
KPG1 091155Z 21003KT 04/04 A3029 RMK A01 T00380037  RH  099%=      5-min Rain = 0
KPG1 091156Z 21004KT 04/04 A3029 RMK A01 T00370036  RH  099%=      5-min Rain = 0
KPG1 091157Z 20003KT 04/04 A3029 RMK A01 T00370036  RH  099%=      5-min Rain = 0
KPG1 091158Z 20003KT 04/04 A3029 RMK A01 T00370036  RH  099%=      5-min Rain = 0
KPG1 091159Z 20003KT 04/04 A3029 RMK A01 T00360035  RH  099%=      5-min Rain = 0
KPG1 091200Z 20003KT 04/04 A3029 RMK A01 T00360035  RH  099%=      5-min Rain = 0
KPG1 091201Z 20002KT 04/03 A3029 RMK A01 T00350033  RH  099%=      5-min Rain = 0
KPG1 091202Z 20002KT 03/03 A3029 RMK A01 T00330032  RH  099%=      5-min Rain = 0
KPG1 091203Z 20002KT 03/03 A3029 RMK A01 T00320031  RH  099%=      5-min Rain = 0
KPG1 091204Z 19003KT 03/03 A3029 RMK A01 T00330031  RH  099%=      5-min Rain = 0
KPG1 091205Z 19002KT 03/03 A3029 RMK A01 T00320031  RH  099%=      5-min Rain = 0
KPG1 091206Z 20002KT 03/03 A3029 RMK A01 T00330031  RH  099%=      5-min Rain = 0
KPG1 091207Z 19002KT 03/03 A3029 RMK A01 T00330032  RH  099%=      5-min Rain = 0
KPG1 091208Z 20002KT 03/03 A3029 RMK A01 T00330032  RH  099%=      5-min Rain = 0
KPG1 091209Z 21002KT 03/03 A3029 RMK A01 T00330033  RH  099%=      5-min Rain = 0
KPG1 091210Z 21003KT 03/03 A3029 RMK A01 T00340033  RH  099%=      5-min Rain = 0
KPG1 091211Z 21003KT 03/03 A3029 RMK A01 T00330032  RH  099%=      5-min Rain = 0
KPG1 091212Z 22003KT 03/03 A3029 RMK A01 T00320031  RH  099%=      5-min Rain = 0
KPG1 091213Z 21003KT 03/03 A3029 RMK A01 T00320031  RH  099%=      5-min Rain = 0
KPG1 091214Z 21003KT 03/03 A3029 RMK A01 T00310030  RH  099%=      5-min Rain = 0
KPG1 091215Z 19003KT 03/03 A3029 RMK A01 T00300029  RH  099%=      5-min Rain = 0
KPG1 091216Z 19003KT 03/03 A3029 RMK A01 T00280027  RH  099%=      5-min Rain = 0
KPG1 091217Z 18003KT 03/03 A3029 RMK A01 T00270025  RH  099%=      5-min Rain = 0
KPG1 091218Z 18003KT 03/02 A3029 RMK A01 T00250024  RH  099%=      5-min Rain = 0
KPG1 091219Z 18004KT 02/02 A3029 RMK A01 T00240023  RH  099%=      5-min Rain = 0
KPG1 091220Z 18004KT 02/02 A3029 RMK A01 T00230022  RH  099%=      5-min Rain = 0
KPG1 091221Z 18003KT 02/02 A3029 RMK A01 T00220021  RH  099%=      5-min Rain = 0
KPG1 091222Z 18003KT 02/02 A3029 RMK A01 T00220020  RH  099%=      5-min Rain = 0
KPG1 091223Z 19003KT 02/02 A3029 RMK A01 T00210019  RH  099%=      5-min Rain = 0
KPG1 091224Z 20003KT 02/02 A303 RMK A01 T00200018  RH  099%=      5-min Rain = 0
KPG1 091225Z 20002KT 02/02 A303 RMK A01 T00190017  RH  099%=      5-min Rain = 0
KPG1 091226Z 20002KT 02/02 A303 RMK A01 T00190017  RH  099%=      5-min Rain = 0
KPG1 091227Z 21002KT 02/02 A303 RMK A01 T00190017  RH  099%=      5-min Rain = 0
KPG1 091228Z 22002KT 02/02 A303 RMK A01 T00190017  RH  099%=      5-min Rain = 0
KPG1 091229Z 23002KT 02/02 A303 RMK A01 T00190017  RH  099%=      5-min Rain = 0
KPG1 091230Z 23002KT 02/02 A303 RMK A01 T00190017  RH  099%=      5-min Rain = 0
KPG1 091231Z 22002KT 02/02 A303 RMK A01 T00190018  RH  099%=      5-min Rain = 0
KPG1 091232Z 21002KT 02/02 A303 RMK A01 T00190018  RH  099%=      5-min Rain = 0
KPG1 091233Z 22003KT 02/02 A303 RMK A01 T00190018  RH  099%=      5-min Rain = 0
KPG1 091234Z 23003KT 02/02 A303 RMK A01 T00190018  RH  099%=      5-min Rain = 0
KPG1 091235Z 22003KT 02/02 A303 RMK A01 T00190018  RH  099%=      5-min Rain = 0
KPG1 091236Z 22003KT 02/02 A303 RMK A01 T00190018  RH  099%=      5-min Rain = 0
KPG1 091237Z 23002KT 02/02 A303 RMK A01 T00190018  RH  099%=      5-min Rain = 0
KPG1 091238Z 23002KT 02/02 A303 RMK A01 T00180018  RH  099%=      5-min Rain = 0
KPG1 091239Z 23003KT 02/02 A303 RMK A01 T00190018  RH  099%=      5-min Rain = 0
KPG1 091240Z 24002KT 02/02 A303 RMK A01 T00190018  RH  099%=      5-min Rain = 0
KPG1 091241Z 24003KT 02/02 A303 RMK A01 T00190018  RH  099%=      5-min Rain = 0
KPG1 091242Z 24002KT 02/02 A303 RMK A01 T00190018  RH  099%=      5-min Rain = 0
KPG1 091243Z 23003KT 02/02 A303 RMK A01 T00200019  RH  100%=      5-min Rain = 0
KPG1 091244Z 23003KT 02/02 A303 RMK A01 T00210020  RH  100%=      5-min Rain = 0
KPG1 091245Z 23002KT 02/02 A303 RMK A01 T00200020  RH  100%=      5-min Rain = 0
KPG1 091246Z 23002KT 02/02 A303 RMK A01 T00210020  RH  100%=      5-min Rain = 0
KPG1 091247Z 23002KT 02/02 A303 RMK A01 T00220021  RH  100%=      5-min Rain = 0
KPG1 091248Z 23003KT 02/02 A303 RMK A01 T00230022  RH  100%=      5-min Rain = 0
KPG1 091249Z 22002KT 02/02 A303 RMK A01 T00230023  RH  100%=      5-min Rain = 0
KPG1 091250Z 21003KT 02/02 A303 RMK A01 T00240024  RH  100%=      5-min Rain = 0
KPG1 091251Z 22003KT 03/02 A303 RMK A01 T00250024  RH  100%=      5-min Rain = 0
KPG1 091252Z 22003KT 03/03 A303 RMK A01 T00250025  RH  100%=      5-min Rain = 0
KPG1 091253Z 23003KT 03/03 A303 RMK A01 T00250025  RH  100%=      5-min Rain = 0
KPG1 091254Z 24003KT 03/02 A303 RMK A01 T00250024  RH  100%=      5-min Rain = 0
KPG1 091255Z 24003KT 03/02 A303 RMK A01 T00250024  RH  100%=      5-min Rain = 0
KPG1 091256Z 24003KT 03/03 A303 RMK A01 T00250025  RH  100%=      5-min Rain = 0
KPG1 091257Z 24003KT 03/02 A303 RMK A01 T00250024  RH  100%=      5-min Rain = 0
KPG1 091258Z 25003KT 02/02 A303 RMK A01 T00240024  RH  100%=      5-min Rain = 0
KPG1 091259Z 25003KT 03/02 A3031 RMK A01 T00250024  RH  100%=      5-min Rain = 0
KPG1 091300Z 24003KT 03/02 A3031 RMK A01 T00250024  RH  100%=      5-min Rain = 0
KPG1 091301Z 24003KT 03/02 A3031 RMK A01 T00250024  RH  100%=      5-min Rain = 0
KPG1 091302Z 24003KT 03/03 A3031 RMK A01 T00250025  RH  100%=      5-min Rain = 0
KPG1 091303Z 24003KT 03/03 A3031 RMK A01 T00250025  RH  100%=      5-min Rain = 0
KPG1 091304Z 23003KT 03/03 A3031 RMK A01 T00260025  RH  100%=      5-min Rain = 0
KPG1 091305Z 24003KT 03/03 A3031 RMK A01 T00260026  RH  100%=      5-min Rain = 0
KPG1 091306Z 24003KT 03/03 A3031 RMK A01 T00260026  RH  100%=      5-min Rain = 0
KPG1 091307Z 24003KT 03/03 A3031 RMK A01 T00260026  RH  100%=      5-min Rain = 0
KPG1 091308Z 24003KT 03/03 A3031 RMK A01 T00260026  RH  100%=      5-min Rain = 0
KPG1 091309Z 24003KT 03/03 A3031 RMK A01 T00270027  RH  100%=      5-min Rain = 0
KPG1 091310Z 23004KT 03/03 A3031 RMK A01 T00270027  RH  100%=      5-min Rain = 0
KPG1 091311Z 22003KT 03/03 A3031 RMK A01 T00270027  RH  100%=      5-min Rain = 0
KPG1 091312Z 23002KT 03/03 A3031 RMK A01 T00280028  RH  100%=      5-min Rain = 0
KPG1 091313Z 23002KT 03/03 A3031 RMK A01 T00280028  RH  100%=      5-min Rain = 0
KPG1 091314Z 24002KT 03/03 A3031 RMK A01 T00280027  RH  100%=      5-min Rain = 0
KPG1 091315Z 23003KT 03/03 A3031 RMK A01 T00270027  RH  100%=      5-min Rain = 0
KPG1 091316Z 24003KT 03/03 A3031 RMK A01 T00270027  RH  100%=      5-min Rain = 0
KPG1 091317Z 23003KT 03/03 A3031 RMK A01 T00270027  RH  100%=      5-min Rain = 0
KPG1 091318Z 23003KT 03/03 A3031 RMK A01 T00270027  RH  100%=      5-min Rain = 0
KPG1 091319Z 23003KT 03/03 A3031 RMK A01 T00260026  RH  100%=      5-min Rain = 0
KPG1 091320Z 23003KT 02/02 A3032 RMK A01 T00240024  RH  100%=      5-min Rain = 0
KPG1 091321Z 22003KT 02/02 A3032 RMK A01 T00240023  RH  100%=      5-min Rain = 0
KPG1 091322Z 22003KT 02/02 A3032 RMK A01 T00230023  RH  100%=      5-min Rain = 0
KPG1 091323Z 22003KT 02/02 A3032 RMK A01 T00220022  RH  100%=      5-min Rain = 0
KPG1 091324Z 22003KT 02/02 A3032 RMK A01 T00220021  RH  100%=      5-min Rain = 0
KPG1 091325Z 23002KT 02/02 A3032 RMK A01 T00210021  RH  100%=      5-min Rain = 0
KPG1 091326Z 24003KT 02/02 A3032 RMK A01 T00210020  RH  100%=      5-min Rain = 0
KPG1 091327Z 23002KT 02/02 A3032 RMK A01 T00200020  RH  100%=      5-min Rain = 0
KPG1 091328Z 24002KT 02/02 A3032 RMK A01 T00200020  RH  100%=      5-min Rain = 0
KPG1 091329Z 24003KT 02/02 A3032 RMK A01 T00210021  RH  100%=      5-min Rain = 0
KPG1 091330Z 23003KT 02/02 A3032 RMK A01 T00220021  RH  100%=      5-min Rain = 0
KPG1 091331Z 24003KT 02/02 A3032 RMK A01 T00220022  RH  100%=      5-min Rain = 0
KPG1 091332Z 24003KT 02/02 A3032 RMK A01 T00220022  RH  100%=      5-min Rain = 0
KPG1 091333Z 23003KT 02/02 A3032 RMK A01 T00210021  RH  100%=      5-min Rain = 0
KPG1 091334Z 24003KT 02/02 A3032 RMK A01 T00210021  RH  100%=      5-min Rain = 0
KPG1 091335Z 23004KT 02/02 A3032 RMK A01 T00210021  RH  100%=      5-min Rain = 0
KPG1 091336Z 22004KT 02/02 A3032 RMK A01 T00210021  RH  100%=      5-min Rain = 0
KPG1 091337Z 21003KT 02/02 A3032 RMK A01 T00210021  RH  100%=      5-min Rain = 0
KPG1 091338Z 23003KT 02/02 A3032 RMK A01 T00210021  RH  100%=      5-min Rain = 0
KPG1 091339Z 22003KT 02/02 A3032 RMK A01 T00210021  RH  100%=      5-min Rain = 0
KPG1 091340Z 22003KT 02/02 A3032 RMK A01 T00200020  RH  100%=      5-min Rain = 0
KPG1 091341Z 21003KT 02/02 A3032 RMK A01 T00200020  RH  100%=      5-min Rain = 0
KPG1 091342Z 21003KT 02/02 A3032 RMK A01 T00190019  RH  100%=      5-min Rain = 0
KPG1 091343Z 22003KT 02/02 A3032 RMK A01 T00190019  RH  100%=      5-min Rain = 0
KPG1 091344Z 21003KT 02/02 A3032 RMK A01 T00200020  RH  100%=      5-min Rain = 0
KPG1 091345Z 21002KT 02/02 A3033 RMK A01 T00200020  RH  100%=      5-min Rain = 0
KPG1 091346Z 21002KT 02/02 A3033 RMK A01 T00200020  RH  100%=      5-min Rain = 0
KPG1 091347Z 21002KT 02/02 A3033 RMK A01 T00200019  RH  100%=      5-min Rain = 0
KPG1 091348Z 22002KT 02/02 A3033 RMK A01 T00190019  RH  100%=      5-min Rain = 0
KPG1 091349Z 23002KT 02/02 A3033 RMK A01 T00190018  RH  100%=      5-min Rain = 0
KPG1 091350Z 23002KT 02/02 A3033 RMK A01 T00190018  RH  100%=      5-min Rain = 0
KPG1 091351Z 22003KT 02/02 A3033 RMK A01 T00180018  RH  100%=      5-min Rain = 0
KPG1 091352Z 24003KT 02/02 A3033 RMK A01 T00190019  RH  100%=      5-min Rain = 0
KPG1 091353Z 24003KT 02/02 A3033 RMK A01 T00200020  RH  100%=      5-min Rain = 0
KPG1 091354Z 24003KT 02/02 A3033 RMK A01 T00200020  RH  100%=      5-min Rain = 0
KPG1 091355Z 24003KT 02/02 A3033 RMK A01 T00200020  RH  100%=      5-min Rain = 0
KPG1 091356Z 24002KT 02/02 A3033 RMK A01 T00210021  RH  100%=      5-min Rain = 0
KPG1 091357Z 24003KT 02/02 A3033 RMK A01 T00240024  RH  100%=      5-min Rain = 0
KPG1 091358Z 23003KT 03/03 A3033 RMK A01 T00250025  RH  100%=      5-min Rain = 0
KPG1 091359Z 23003KT 03/03 A3033 RMK A01 T00260026  RH  100%=      5-min Rain = 0
KPG1 091400Z 23003KT 03/03 A3033 RMK A01 T00270027  RH  100%=      5-min Rain = 0
KPG1 091401Z 24003KT 03/03 A3033 RMK A01 T00280028  RH  100%=      5-min Rain = 0
KPG1 091402Z 24003KT 03/03 A3033 RMK A01 T00280028  RH  100%=      5-min Rain = 0
KPG1 091403Z 24003KT 03/03 A3033 RMK A01 T00290029  RH  100%=      5-min Rain = 0
KPG1 091404Z 25003KT 03/03 A3033 RMK A01 T00300030  RH  100%=      5-min Rain = 0
KPG1 091405Z 24003KT 03/03 A3033 RMK A01 T00300030  RH  100%=      5-min Rain = 0
KPG1 091406Z 23003KT 03/03 A3033 RMK A01 T00310031  RH  100%=      5-min Rain = 0
KPG1 091407Z 24003KT 03/03 A3033 RMK A01 T00310031  RH  100%=      5-min Rain = 0
KPG1 091408Z 24003KT 03/03 A3033 RMK A01 T00310031  RH  100%=      5-min Rain = 0
KPG1 091409Z 24003KT 03/03 A3033 RMK A01 T00310031  RH  100%=      5-min Rain = 0
KPG1 091410Z 23003KT 03/03 A3033 RMK A01 T00320032  RH  100%=      5-min Rain = 0
KPG1 091411Z 24003KT 03/03 A3033 RMK A01 T00320032  RH  100%=      5-min Rain = 0
KPG1 091412Z 25003KT 03/03 A3033 RMK A01 T00330032  RH  100%=      5-min Rain = 0
KPG1 091413Z 24003KT 03/03 A3034 RMK A01 T00330033  RH  100%=      5-min Rain = 0
KPG1 091414Z 24002KT 03/03 A3034 RMK A01 T00340034  RH  100%=      5-min Rain = 0
KPG1 091415Z 23002KT 03/03 A3034 RMK A01 T00340034  RH  100%=      5-min Rain = 0
KPG1 091416Z 23002KT 04/04 A3034 RMK A01 T00350035  RH  100%=      5-min Rain = 0
KPG1 091417Z 24002KT 04/04 A3034 RMK A01 T00360036  RH  100%=      5-min Rain = 0
KPG1 091418Z 23002KT 04/04 A3034 RMK A01 T00370037  RH  100%=      5-min Rain = 0
KPG1 091419Z 22002KT 04/04 A3034 RMK A01 T00370037  RH  100%=      5-min Rain = 0
KPG1 091420Z 22002KT 04/04 A3034 RMK A01 T00380038  RH  100%=      5-min Rain = 0
KPG1 091421Z 21002KT 04/04 A3034 RMK A01 T00390038  RH  100%=      5-min Rain = 0
KPG1 091422Z 20002KT 04/04 A3034 RMK A01 T00390039  RH  100%=      5-min Rain = 0
KPG1 091423Z 19002KT 04/04 A3034 RMK A01 T00390039  RH  100%=      5-min Rain = 0
KPG1 091424Z 18003KT 04/04 A3034 RMK A01 T00400040  RH  100%=      5-min Rain = 0
KPG1 091425Z 19003KT 04/04 A3034 RMK A01 T00400040  RH  100%=      5-min Rain = 0
KPG1 091426Z 19003KT 04/04 A3034 RMK A01 T00390039  RH  100%=      5-min Rain = 0
KPG1 091427Z 17003KT 04/04 A3034 RMK A01 T00390039  RH  100%=      5-min Rain = 0
KPG1 091428Z 18003KT 04/04 A3034 RMK A01 T00400040  RH  100%=      5-min Rain = 0
KPG1 091429Z 18004KT 04/04 A3034 RMK A01 T00400040  RH  100%=      5-min Rain = 0
KPG1 091430Z 17003KT 04/04 A3034 RMK A01 T00400040  RH  100%=      5-min Rain = 0
KPG1 091431Z 19003KT 04/04 A3034 RMK A01 T00400040  RH  100%=      5-min Rain = 0
KPG1 091432Z 19003KT 04/04 A3034 RMK A01 T00400040  RH  100%=      5-min Rain = 0
KPG1 091433Z 18003KT 04/04 A3034 RMK A01 T00390039  RH  100%=      5-min Rain = 0
KPG1 091434Z 18003KT 04/04 A3034 RMK A01 T00390039  RH  100%=      5-min Rain = 0
KPG1 091435Z 18003KT 04/04 A3034 RMK A01 T00390039  RH  100%=      5-min Rain = 0
KPG1 091436Z 20002KT 04/04 A3034 RMK A01 T00400040  RH  100%=      5-min Rain = 0
KPG1 091437Z 19003KT 04/04 A3034 RMK A01 T00400040  RH  100%=      5-min Rain = 0
KPG1 091438Z 18003KT 04/04 A3034 RMK A01 T00410041  RH  100%=      5-min Rain = 0
KPG1 091439Z 18002KT 04/04 A3034 RMK A01 T00420042  RH  100%=      5-min Rain = 0
KPG1 091440Z 19002KT 04/04 A3034 RMK A01 T00420042  RH  100%=      5-min Rain = 0
KPG1 091441Z 20002KT 04/04 A3034 RMK A01 T00430042  RH  100%=      5-min Rain = 0
KPG1 091442Z 20003KT 04/04 A3034 RMK A01 T00420042  RH  100%=      5-min Rain = 0
KPG1 091443Z 19003KT 04/04 A3034 RMK A01 T00430042  RH  100%=      5-min Rain = 0
KPG1 091444Z 20003KT 04/04 A3034 RMK A01 T00430043  RH  100%=      5-min Rain = 0
KPG1 091445Z 20003KT 04/04 A3034 RMK A01 T00430043  RH  100%=      5-min Rain = 0
KPG1 091446Z 20004KT 04/04 A3034 RMK A01 T00430043  RH  100%=      5-min Rain = 0
KPG1 091447Z 20003KT 04/04 A3035 RMK A01 T00440044  RH  100%=      5-min Rain = 0
KPG1 091448Z 21003KT 04/04 A3035 RMK A01 T00440044  RH  100%=      5-min Rain = 0
KPG1 091449Z 21003KT 04/04 A3035 RMK A01 T00440044  RH  100%=      5-min Rain = 0
KPG1 091450Z 20003KT 04/04 A3035 RMK A01 T00440044  RH  100%=      5-min Rain = 0
KPG1 091451Z 20004KT 04/04 A3035 RMK A01 T00430043  RH  100%=      5-min Rain = 0
KPG1 091452Z 20003KT 04/04 A3035 RMK A01 T00420042  RH  100%=      5-min Rain = 0
KPG1 091453Z 20003KT 04/04 A3035 RMK A01 T00420042  RH  100%=      5-min Rain = 0
KPG1 091454Z 20003KT 04/04 A3035 RMK A01 T00420042  RH  100%=      5-min Rain = 0
KPG1 091455Z 20003KT 04/04 A3035 RMK A01 T00410041  RH  100%=      5-min Rain = 0
KPG1 091456Z 20003KT 04/04 A3035 RMK A01 T00410040  RH  100%=      5-min Rain = 0
KPG1 091457Z 19003KT 04/04 A3035 RMK A01 T00400039  RH  100%=      5-min Rain = 0
KPG1 091458Z 19003KT 04/04 A3035 RMK A01 T00390039  RH  100%=      5-min Rain = 0
KPG1 091459Z 19003KT 04/04 A3035 RMK A01 T00390039  RH  100%=      5-min Rain = 0
KPG1 091500Z 20003KT 04/04 A3035 RMK A01 T00390039  RH  100%=      5-min Rain = 0
KPG1 091501Z 21003KT 04/04 A3035 RMK A01 T00390038  RH  100%=      5-min Rain = 0
KPG1 091502Z 20003KT 04/04 A3035 RMK A01 T00380037  RH  100%=      5-min Rain = 0
KPG1 091503Z 20004KT 04/04 A3035 RMK A01 T00380037  RH  100%=      5-min Rain = 0
KPG1 091504Z 19004KT 04/04 A3035 RMK A01 T00380038  RH  100%=      5-min Rain = 0
KPG1 091505Z 19004KT 04/04 A3035 RMK A01 T00380038  RH  100%=      5-min Rain = 0
KPG1 091506Z 20004KT 04/04 A3035 RMK A01 T00390039  RH  100%=      5-min Rain = 0
KPG1 091507Z 20003KT 04/04 A3035 RMK A01 T00380038  RH  100%=      5-min Rain = 0
KPG1 091508Z 21003KT 04/04 A3035 RMK A01 T00380038  RH  100%=      5-min Rain = 0
KPG1 091509Z 21003KT 04/04 A3035 RMK A01 T00380038  RH  100%=      5-min Rain = 0
KPG1 091510Z 21003KT 04/04 A3035 RMK A01 T00380038  RH  100%=      5-min Rain = 0
KPG1 091511Z 21004KT 04/04 A3035 RMK A01 T00380038  RH  100%=      5-min Rain = 0
KPG1 091512Z 20004KT 04/04 A3035 RMK A01 T00380038  RH  100%=      5-min Rain = 0
KPG1 091513Z 20004KT 04/04 A3035 RMK A01 T00390039  RH  100%=      5-min Rain = 0
KPG1 091514Z 21004KT 04/04 A3035 RMK A01 T00400039  RH  100%=      5-min Rain = 0
KPG1 091515Z 21004KT 04/04 A3036 RMK A01 T00400040  RH  100%=      5-min Rain = 0
KPG1 091516Z 21004KT 04/04 A3036 RMK A01 T00410041  RH  100%=      5-min Rain = 0
KPG1 091517Z 21004KT 04/04 A3036 RMK A01 T00420041  RH  100%=      5-min Rain = 0
KPG1 091518Z 21004KT 04/04 A3036 RMK A01 T00430042  RH  100%=      5-min Rain = 0
KPG1 091519Z 20004KT 04/04 A3036 RMK A01 T00440043  RH  100%=      5-min Rain = 0
KPG1 091520Z 20004KT 04/04 A3036 RMK A01 T00440044  RH  100%=      5-min Rain = 0
KPG1 091521Z 20004KT 05/04 A3036 RMK A01 T00450044  RH  100%=      5-min Rain = 0
KPG1 091522Z 20004KT 05/05 A3036 RMK A01 T00450045  RH  100%=      5-min Rain = 0
KPG1 091523Z 20003KT 05/05 A3035 RMK A01 T00460045  RH  100%=      5-min Rain = 0
KPG1 091524Z 20002KT 05/05 A3035 RMK A01 T00470047  RH  100%=      5-min Rain = 0
KPG1 091525Z 20003KT 05/05 A3035 RMK A01 T00490049  RH  100%=      5-min Rain = 0
KPG1 091526Z 19003KT 05/05 A3035 RMK A01 T00500050  RH  100%=      5-min Rain = 0
KPG1 091527Z 19003KT 05/05 A3035 RMK A01 T00510051  RH  100%=      5-min Rain = 0
KPG1 091528Z 19004KT 05/05 A3036 RMK A01 T00520051  RH  100%=      5-min Rain = 0
KPG1 091529Z 19004KT 05/05 A3036 RMK A01 T00510051  RH  100%=      5-min Rain = 0
KPG1 091530Z 19004KT 05/05 A3036 RMK A01 T00510051  RH  100%=      5-min Rain = 0
KPG1 091531Z 19004KT 05/05 A3036 RMK A01 T00510051  RH  100%=      5-min Rain = 0
KPG1 091532Z 19004KT 05/05 A3036 RMK A01 T00530052  RH  100%=      5-min Rain = 0
KPG1 091533Z 19004KT 05/05 A3036 RMK A01 T00540053  RH  100%=      5-min Rain = 0
KPG1 091534Z 19004KT 06/06 A3036 RMK A01 T00560056  RH  100%=      5-min Rain = 0
KPG1 091535Z 18004KT 06/06 A3036 RMK A01 T00570057  RH  100%=      5-min Rain = 0
KPG1 091536Z 19003KT 06/06 A3036 RMK A01 T00570056  RH  099%=      5-min Rain = 0
KPG1 091537Z 19003KT 06/06 A3036 RMK A01 T00570056  RH  099%=      5-min Rain = 0
KPG1 091538Z 19003KT 06/06 A3036 RMK A01 T00590058  RH  100%=      5-min Rain = 0
KPG1 091539Z 18004KT 06/06 A3036 RMK A01 T00590058  RH  099%=      5-min Rain = 0
KPG1 091540Z 18005KT 06/06 A3036 RMK A01 T00590057  RH  099%=      5-min Rain = 0
KPG1 091541Z 19004KT 06/06 A3036 RMK A01 T00600058  RH  099%=      5-min Rain = 0
KPG1 091542Z 18004KT 06/06 A3036 RMK A01 T00590057  RH  099%=      5-min Rain = 0
KPG1 091543Z 20004KT 06/06 A3036 RMK A01 T00600058  RH  099%=      5-min Rain = 0
KPG1 091544Z 20004KT 06/06 A3036 RMK A01 T00610059  RH  099%=      5-min Rain = 0
KPG1 091545Z 20004KT 06/06 A3036 RMK A01 T00610059  RH  099%=      5-min Rain = 0
KPG1 091546Z 20004KT 06/06 A3036 RMK A01 T00610059  RH  098%=      5-min Rain = 0
KPG1 091547Z 19005KT 06/06 A3036 RMK A01 T00620060  RH  098%=      5-min Rain = 0
KPG1 091548Z 19005KT 06/06 A3036 RMK A01 T00630060  RH  098%=      5-min Rain = 0
KPG1 091549Z 21004KT 06/06 A3036 RMK A01 T00640060  RH  098%=      5-min Rain = 0
KPG1 091550Z 19005KT 06/06 A3036 RMK A01 T00640060  RH  097%=      5-min Rain = 0
KPG1 091551Z 20005KT 06/06 A3036 RMK A01 T00640059  RH  097%=      5-min Rain = 0
KPG1 091552Z 19005KT 07/06 A3036 RMK A01 T00650060  RH  097%=      5-min Rain = 0
KPG1 091553Z 19005KT 07/06 A3036 RMK A01 T00670062  RH  097%=      5-min Rain = 0
KPG1 091554Z 20004KT 07/06 A3036 RMK A01 T00670061  RH  096%=      5-min Rain = 0
KPG1 091555Z 21005KT 07/06 A3036 RMK A01 T00680062  RH  096%=      5-min Rain = 0
KPG1 091556Z 19004KT 07/06 A3036 RMK A01 T00690062  RH  095%=      5-min Rain = 0
KPG1 091557Z 19005KT 07/06 A3036 RMK A01 T00700062  RH  095%=      5-min Rain = 0
KPG1 091558Z 17005KT 07/06 A3036 RMK A01 T00700062  RH  094%=      5-min Rain = 0
KPG1 091559Z 18006KT 07/06 A3036 RMK A01 T00710063  RH  094%=      5-min Rain = 0
KPG1 091600Z 19004KT 07/06 A3036 RMK A01 T00730063  RH  094%=      5-min Rain = 0
KPG1 091601Z 19005KT 07/06 A3036 RMK A01 T00740064  RH  093%=      5-min Rain = 0
KPG1 091602Z 19005KT 07/06 A3036 RMK A01 T00740062  RH  092%=      5-min Rain = 0
KPG1 091603Z 18005KT 07/06 A3036 RMK A01 T00730060  RH  092%=      5-min Rain = 0
KPG1 091604Z 19005KT 07/06 A3036 RMK A01 T00730062  RH  093%=      5-min Rain = 0
KPG1 091605Z 19004KT 07/06 A3036 RMK A01 T00740061  RH  092%=      5-min Rain = 0
KPG1 091606Z 20005KT 07/06 A3036 RMK A01 T00740062  RH  092%=      5-min Rain = 0
KPG1 091607Z 18004KT 07/06 A3036 RMK A01 T00740062  RH  091%=      5-min Rain = 0
KPG1 091608Z 17004KT 08/07 A3036 RMK A01 T00760065  RH  093%=      5-min Rain = 0
KPG1 091609Z 18004KT 08/06 A3036 RMK A01 T00770064  RH  091%=      5-min Rain = 0
KPG1 091610Z 18005KT 08/07 A3036 RMK A01 T00790065  RH  091%=      5-min Rain = 0
KPG1 091611Z 18005KT 08/06 A3036 RMK A01 T00790063  RH  090%=      5-min Rain = 0
KPG1 091612Z 18005KT 08/06 A3036 RMK A01 T00810064  RH  089%=      5-min Rain = 0
KPG1 091613Z 17006KT 08/06 A3036 RMK A01 T00820064  RH  088%=      5-min Rain = 0
KPG1 091614Z 18005KT 08/06 A3036 RMK A01 T00830063  RH  088%=      5-min Rain = 0
KPG1 091615Z 18005KT 08/06 A3036 RMK A01 T00830064  RH  087%=      5-min Rain = 0
KPG1 091616Z 19005KT 08/06 A3036 RMK A01 T00830062  RH  087%=      5-min Rain = 0
KPG1 091617Z 18005KT 08/06 A3036 RMK A01 T00830061  RH  086%=      5-min Rain = 0
KPG1 091618Z 18006KT 08/06 A3036 RMK A01 T00830063  RH  088%=      5-min Rain = 0
KPG1 091619Z 18004KT 08/06 A3037 RMK A01 T00840063  RH  086%=      5-min Rain = 0
KPG1 091620Z 17005KT 08/06 A3037 RMK A01 T00840062  RH  086%=      5-min Rain = 0
KPG1 091621Z 17006KT 08/06 A3036 RMK A01 T00840062  RH  086%=      5-min Rain = 0
KPG1 091622Z 17005KT 08/06 A3036 RMK A01 T00840062  RH  086%=      5-min Rain = 0
KPG1 091623Z 17004KT 08/06 A3036 RMK A01 T00840062  RH  086%=      5-min Rain = 0
KPG1 091624Z 18005KT 08/06 A3036 RMK A01 T00840062  RH  086%=      5-min Rain = 0
KPG1 091625Z 19005KT 09/06 A3036 RMK A01 T00850062  RH  086%=      5-min Rain = 0
KPG1 091626Z 19004KT 09/06 A3037 RMK A01 T00850059  RH  083%=      5-min Rain = 0
KPG1 091627Z 20004KT 09/06 A3037 RMK A01 T00870059  RH  083%=      5-min Rain = 0
KPG1 091628Z 18005KT 09/06 A3036 RMK A01 T00880058  RH  081%=      5-min Rain = 0
KPG1 091629Z 19005KT 09/06 A3036 RMK A01 T00890060  RH  082%=      5-min Rain = 0
KPG1 091630Z 19004KT 09/06 A3036 RMK A01 T00910060  RH  081%=      5-min Rain = 0
KPG1 091631Z 19005KT 09/06 A3036 RMK A01 T00910059  RH  080%=      5-min Rain = 0
KPG1 091632Z 18004KT 09/06 A3036 RMK A01 T00920062  RH  082%=      5-min Rain = 0
KPG1 091633Z 19003KT 09/06 A3036 RMK A01 T00930060  RH  080%=      5-min Rain = 0
KPG1 091634Z 20005KT 09/06 A3036 RMK A01 T00930062  RH  081%=      5-min Rain = 0
KPG1 091635Z 18005KT 09/06 A3036 RMK A01 T00940061  RH  080%=      5-min Rain = 0
KPG1 091636Z 18005KT 09/06 A3037 RMK A01 T00940060  RH  079%=      5-min Rain = 0
KPG1 091637Z 17004KT 09/06 A3037 RMK A01 T00940060  RH  079%=      5-min Rain = 0
KPG1 091638Z 17004KT 09/06 A3036 RMK A01 T00940061  RH  080%=      5-min Rain = 0
KPG1 091639Z 17004KT 10/06 A3036 RMK A01 T00970064  RH  080%=      5-min Rain = 0
KPG1 091640Z 17005KT 10/06 A3036 RMK A01 T00980062  RH  078%=      5-min Rain = 0
KPG1 091641Z 19005KT 10/06 A3036 RMK A01 T00980061  RH  078%=      5-min Rain = 0
KPG1 091642Z 20003KT 10/06 A3036 RMK A01 T00970060  RH  078%=      5-min Rain = 0
KPG1 091643Z 16004KT 10/06 A3036 RMK A01 T00960062  RH  079%=      5-min Rain = 0
KPG1 091644Z 17005KT 10/06 A3036 RMK A01 T00980063  RH  078%=      5-min Rain = 0
KPG1 091645Z 18004KT 10/06 A3036 RMK A01 T01000061  RH  077%=      5-min Rain = 0
KPG1 091646Z 18004KT 10/06 A3036 RMK A01 T00980059  RH  077%=      5-min Rain = 0
KPG1 091647Z 19003KT 10/06 A3036 RMK A01 T00960061  RH  079%=      5-min Rain = 0
KPG1 091648Z 17005KT 10/06 A3036 RMK A01 T00970063  RH  079%=      5-min Rain = 0
KPG1 091649Z 18005KT 10/06 A3036 RMK A01 T01000063  RH  078%=      5-min Rain = 0
KPG1 091650Z 17004KT 10/06 A3036 RMK A01 T01010061  RH  076%=      5-min Rain = 0
KPG1 091651Z 18003KT 10/06 A3036 RMK A01 T01010062  RH  077%=      5-min Rain = 0
KPG1 091652Z 17005KT 10/06 A3036 RMK A01 T01020064  RH  078%=      5-min Rain = 0
KPG1 091653Z 16003KT 10/06 A3036 RMK A01 T01030062  RH  076%=      5-min Rain = 0
KPG1 091654Z 16004KT 10/06 A3036 RMK A01 T01030062  RH  076%=      5-min Rain = 0
KPG1 091655Z 18005KT 10/06 A3036 RMK A01 T01040063  RH  076%=      5-min Rain = 0
KPG1 091656Z 18005KT 10/06 A3036 RMK A01 T01040063  RH  076%=      5-min Rain = 0
KPG1 091657Z 18004KT 10/06 A3036 RMK A01 T01040062  RH  075%=      5-min Rain = 0
KPG1 091658Z 17004KT 10/06 A3036 RMK A01 T01030063  RH  076%=      5-min Rain = 0
KPG1 091659Z 16004KT 11/06 A3036 RMK A01 T01050064  RH  076%=      5-min Rain = 0
KPG1 091700Z 19005KT 11/07 A3036 RMK A01 T01080065  RH  075%=      5-min Rain = 0
KPG1 091701Z 22004KT 11/06 A3036 RMK A01 T01080064  RH  074%=      5-min Rain = 0
KPG1 091702Z 20003KT 11/06 A3036 RMK A01 T01070064  RH  075%=      5-min Rain = 0
KPG1 091703Z 18003KT 11/06 A3036 RMK A01 T01070064  RH  075%=      5-min Rain = 0
KPG1 091704Z 18005KT 11/07 A3036 RMK A01 T01080065  RH  075%=      5-min Rain = 0
KPG1 091705Z 20004KT 11/06 A3036 RMK A01 T01080063  RH  074%=      5-min Rain = 0
KPG1 091706Z 17002KT 11/07 A3036 RMK A01 T01070065  RH  075%=      5-min Rain = 0
KPG1 091707Z 17002KT 11/07 A3036 RMK A01 T01090066  RH  075%=      5-min Rain = 0
KPG1 091708Z 15002KT 11/07 A3036 RMK A01 T01110066  RH  074%=      5-min Rain = 0
KPG1 091709Z 15003KT 12/07 A3036 RMK A01 T01150070  RH  074%=      5-min Rain = 0
KPG1 091710Z 17005KT 12/07 A3036 RMK A01 T01170068  RH  071%=      5-min Rain = 0
KPG1 091711Z 18003KT 12/07 A3036 RMK A01 T01170065  RH  070%=      5-min Rain = 0
KPG1 091712Z 18002KT 12/07 A3036 RMK A01 T01160065  RH  071%=      5-min Rain = 0
KPG1 091713Z 15003KT 12/07 A3036 RMK A01 T01160066  RH  072%=      5-min Rain = 0
KPG1 091714Z 16004KT 12/07 A3036 RMK A01 T01170068  RH  072%=      5-min Rain = 0
KPG1 091715Z 16003KT 12/07 A3036 RMK A01 T01190069  RH  071%=      5-min Rain = 0
KPG1 091716Z 16003KT 12/07 A3036 RMK A01 T01200068  RH  071%=      5-min Rain = 0
KPG1 091717Z 17002KT 12/07 A3036 RMK A01 T01200066  RH  069%=      5-min Rain = 0
KPG1 091718Z 18004KT 12/07 A3036 RMK A01 T01190066  RH  070%=      5-min Rain = 0
KPG1 091719Z 17005KT 12/07 A3036 RMK A01 T01190068  RH  071%=      5-min Rain = 0
KPG1 091720Z 18004KT 12/07 A3036 RMK A01 T01180065  RH  070%=      5-min Rain = 0
KPG1 091721Z 18005KT 12/07 A3036 RMK A01 T01160066  RH  071%=      5-min Rain = 0
KPG1 091722Z 19005KT 12/07 A3036 RMK A01 T01170068  RH  072%=      5-min Rain = 0
KPG1 091723Z 17003KT 12/07 A3036 RMK A01 T01180067  RH  071%=      5-min Rain = 0
KPG1 091724Z 18004KT 12/07 A3036 RMK A01 T01190067  RH  070%=      5-min Rain = 0
KPG1 091725Z 17002KT 12/07 A3036 RMK A01 T01200065  RH  069%=      5-min Rain = 0
KPG1 091726Z 18003KT 12/06 A3036 RMK A01 T01200064  RH  068%=      5-min Rain = 0
KPG1 091727Z 18004KT 12/06 A3036 RMK A01 T01200063  RH  068%=      5-min Rain = 0
KPG1 091728Z 18003KT 12/06 A3036 RMK A01 T01190062  RH  068%=      5-min Rain = 0
KPG1 091729Z 18005KT 12/07 A3036 RMK A01 T01190065  RH  069%=      5-min Rain = 0
KPG1 091730Z 19005KT 12/06 A3036 RMK A01 T01200064  RH  069%=      5-min Rain = 0
KPG1 091731Z 20003KT 12/06 A3036 RMK A01 T01200062  RH  068%=      5-min Rain = 0
KPG1 091732Z 20004KT 12/06 A3036 RMK A01 T01180061  RH  068%=      5-min Rain = 0
KPG1 091733Z 20003KT 12/06 A3036 RMK A01 T01160061  RH  069%=      5-min Rain = 0
KPG1 091734Z 20002KT 12/06 A3036 RMK A01 T01150062  RH  070%=      5-min Rain = 0
KPG1 091735Z 20002KT 12/06 A3036 RMK A01 T01150062  RH  070%=      5-min Rain = 0
KPG1 091736Z 18002KT 12/06 A3036 RMK A01 T01160062  RH  069%=      5-min Rain = 0
KPG1 091737Z 15003KT 12/07 A3036 RMK A01 T01190068  RH  071%=      5-min Rain = 0
KPG1 091738Z 14003KT 12/07 A3036 RMK A01 T01230068  RH  069%=      5-min Rain = 0
KPG1 091739Z 15004KT 13/07 A3035 RMK A01 T01270071  RH  069%=      5-min Rain = 0
KPG1 091740Z 17003KT 13/07 A3035 RMK A01 T01290069  RH  067%=      5-min Rain = 0
KPG1 091741Z 15004KT 13/07 A3035 RMK A01 T01270068  RH  067%=      5-min Rain = 0
KPG1 091742Z 15002KT 13/07 A3035 RMK A01 T01250066  RH  067%=      5-min Rain = 0
KPG1 091743Z 13003KT 13/07 A3035 RMK A01 T01250067  RH  068%=      5-min Rain = 0
KPG1 091744Z 20004KT 13/07 A3035 RMK A01 T01260069  RH  068%=      5-min Rain = 0
KPG1 091745Z 21002KT 13/07 A3035 RMK A01 T01270065  RH  066%=      5-min Rain = 0
KPG1 091746Z 22002KT 13/06 A3035 RMK A01 T01250061  RH  065%=      5-min Rain = 0
KPG1 091747Z 19001KT 12/06 A3035 RMK A01 T01240063  RH  066%=      5-min Rain = 0
KPG1 091748Z 13004KT 12/07 A3035 RMK A01 T01240065  RH  067%=      5-min Rain = 0
KPG1 091749Z 14003KT 12/07 A3035 RMK A01 T01240065  RH  067%=      5-min Rain = 0
KPG1 091750Z 15004KT 12/07 A3035 RMK A01 T01240066  RH  068%=      5-min Rain = 0
KPG1 091751Z 16003KT 12/07 A3035 RMK A01 T01240067  RH  068%=      5-min Rain = 0
KPG1 091752Z 15003KT 12/07 A3035 RMK A01 T01240067  RH  068%=      5-min Rain = 0
KPG1 091753Z 14002KT 13/07 A3035 RMK A01 T01250068  RH  068%=      5-min Rain = 0
KPG1 091754Z 13004KT 13/07 A3035 RMK A01 T01270069  RH  068%=      5-min Rain = 0
KPG1 091755Z 19003KT 13/07 A3035 RMK A01 T01280069  RH  067%=      5-min Rain = 0
KPG1 091756Z 18002KT 13/07 A3035 RMK A01 T01270067  RH  066%=      5-min Rain = 0
KPG1 091757Z 25001KT 13/07 A3035 RMK A01 T01260066  RH  067%=      5-min Rain = 0
KPG1 091758Z 17001KT 13/07 A3034 RMK A01 T01270069  RH  068%=      5-min Rain = 0
KPG1 091759Z 18003KT 13/07 A3034 RMK A01 T01290071  RH  068%=      5-min Rain = 0
KPG1 091800Z 15004KT 13/07 A3034 RMK A01 T01300071  RH  068%=      5-min Rain = 0
KPG1 091801Z 17004KT 13/07 A3034 RMK A01 T01330073  RH  067%=      5-min Rain = 0
KPG1 091802Z 15004KT 13/07 A3034 RMK A01 T01340072  RH  066%=      5-min Rain = 0
KPG1 091803Z 16005KT 14/07 A3034 RMK A01 T01350074  RH  067%=      5-min Rain = 0
KPG1 091804Z 17005KT 14/08 A3034 RMK A01 T01370076  RH  067%=      5-min Rain = 0
KPG1 091805Z 18006KT 14/07 A3034 RMK A01 T01380072  RH  064%=      5-min Rain = 0
KPG1 091806Z 20005KT 14/07 A3034 RMK A01 T01370071  RH  064%=      5-min Rain = 0
KPG1 091807Z 16004KT 13/07 A3034 RMK A01 T01330072  RH  066%=      5-min Rain = 0
KPG1 091808Z 14005KT 14/08 A3034 RMK A01 T01360075  RH  066%=      5-min Rain = 0
KPG1 091809Z 16006KT 14/07 A3034 RMK A01 T01380073  RH  065%=      5-min Rain = 0
KPG1 091810Z 18005KT 14/07 A3034 RMK A01 T01380071  RH  064%=      5-min Rain = 0
KPG1 091811Z 18005KT 14/07 A3034 RMK A01 T01380070  RH  064%=      5-min Rain = 0
KPG1 091812Z 18007KT 14/07 A3034 RMK A01 T01370070  RH  064%=      5-min Rain = 0
KPG1 091813Z 18006KT 14/07 A3034 RMK A01 T01360071  RH  064%=      5-min Rain = 0
KPG1 091814Z 19004KT 14/07 A3034 RMK A01 T01370072  RH  065%=      5-min Rain = 0
KPG1 091815Z 16004KT 14/08 A3034 RMK A01 T01380075  RH  066%=      5-min Rain = 0
KPG1 091816Z 15005KT 14/07 A3034 RMK A01 T01390073  RH  064%=      5-min Rain = 0
KPG1 091817Z 16005KT 14/07 A3033 RMK A01 T01390072  RH  064%=      5-min Rain = 0
KPG1 091818Z 17007KT 14/07 A3033 RMK A01 T01390074  RH  065%=      5-min Rain = 0
KPG1 091819Z 15006KT 14/07 A3033 RMK A01 T01410074  RH  064%=      5-min Rain = 0
KPG1 091820Z 16004KT 14/07 A3033 RMK A01 T01440074  RH  063%=      5-min Rain = 0
KPG1 091821Z 21003KT 15/08 A3033 RMK A01 T01450075  RH  063%=      5-min Rain = 0
KPG1 091822Z 22004KT 14/07 A3033 RMK A01 T01440073  RH  062%=      5-min Rain = 0
KPG1 091823Z 20003KT 14/07 A3033 RMK A01 T01430074  RH  063%=      5-min Rain = 0
KPG1 091824Z 17003KT 14/08 A3033 RMK A01 T01440076  RH  064%=      5-min Rain = 0
KPG1 091825Z 18002KT 15/07 A3033 RMK A01 T01450074  RH  062%=      5-min Rain = 0
KPG1 091826Z 18004KT 15/08 A3033 RMK A01 T01450076  RH  063%=      5-min Rain = 0
KPG1 091827Z 17005KT 15/08 A3033 RMK A01 T01460075  RH  062%=      5-min Rain = 0
KPG1 091828Z 19006KT 15/07 A3033 RMK A01 T01460072  RH  061%=      5-min Rain = 0
KPG1 091829Z 19005KT 14/07 A3033 RMK A01 T01440073  RH  062%=      5-min Rain = 0
KPG1 091830Z 16004KT 14/08 A3033 RMK A01 T01430075  RH  064%=      5-min Rain = 0
KPG1 091831Z 15004KT 14/07 A3033 RMK A01 T01440074  RH  063%=      5-min Rain = 0
KPG1 091832Z 16002KT 14/07 A3032 RMK A01 T01430073  RH  063%=      5-min Rain = 0
KPG1 091833Z 18003KT 14/07 A3032 RMK A01 T01420073  RH  063%=      5-min Rain = 0
KPG1 091834Z 16003KT 14/07 A3032 RMK A01 T01420074  RH  063%=      5-min Rain = 0
KPG1 091835Z 17005KT 14/08 A3032 RMK A01 T01440077  RH  064%=      5-min Rain = 0
KPG1 091836Z 17006KT 15/08 A3032 RMK A01 T01470075  RH  062%=      5-min Rain = 0
KPG1 091837Z 19004KT 15/08 A3032 RMK A01 T01460077  RH  063%=      5-min Rain = 0
KPG1 091838Z 16002KT 15/08 A3032 RMK A01 T01490077  RH  062%=      5-min Rain = 0
KPG1 091839Z 13003KT 15/08 A3032 RMK A01 T01510077  RH  061%=      5-min Rain = 0
KPG1 091840Z 16003KT 15/07 A3032 RMK A01 T01500073  RH  060%=      5-min Rain = 0
KPG1 091841Z 19001KT 15/07 A3032 RMK A01 T01490072  RH  060%=      5-min Rain = 0
KPG1 091842Z 17003KT 15/07 A3031 RMK A01 T01480073  RH  061%=      5-min Rain = 0
KPG1 091843Z 19003KT 15/07 A3031 RMK A01 T01490073  RH  060%=      5-min Rain = 0
KPG1 091844Z 21002KT 15/07 A3031 RMK A01 T01490073  RH  060%=      5-min Rain = 0
KPG1 091845Z 22002KT 15/07 A3031 RMK A01 T01490071  RH  060%=      5-min Rain = 0
KPG1 091846Z 28001KT 15/07 A3031 RMK A01 T01470072  RH  060%=      5-min Rain = 0
KPG1 091847Z 15003KT 15/07 A3031 RMK A01 T01470072  RH  061%=      5-min Rain = 0
KPG1 091848Z 17006KT 15/08 A3031 RMK A01 T01490075  RH  061%=      5-min Rain = 0
KPG1 091849Z 16005KT 15/08 A3031 RMK A01 T01500076  RH  061%=      5-min Rain = 0
KPG1 091850Z 14005KT 15/07 A3031 RMK A01 T01510074  RH  060%=      5-min Rain = 0
KPG1 091851Z 13003KT 15/07 A3031 RMK A01 T01500073  RH  060%=      5-min Rain = 0
KPG1 091852Z 11004KT 15/07 A3031 RMK A01 T01500072  RH  060%=      5-min Rain = 0
KPG1 091853Z 12001KT 15/07 A3031 RMK A01 T01490071  RH  060%=      5-min Rain = 0
KPG1 091854Z 14006KT 15/07 A3031 RMK A01 T01490074  RH  061%=      5-min Rain = 0
KPG1 091855Z 15008KT 15/07 A3031 RMK A01 T01500073  RH  060%=      5-min Rain = 0
KPG1 091856Z 16005KT 15/07 A3031 RMK A01 T01500072  RH  060%=      5-min Rain = 0
KPG1 091857Z 17005KT 15/07 A3031 RMK A01 T01500070  RH  059%=      5-min Rain = 0
KPG1 091858Z 15005KT 15/07 A303 RMK A01 T01490071  RH  060%=      5-min Rain = 0
KPG1 091859Z 15003KT 15/07 A303 RMK A01 T01500072  RH  060%=      5-min Rain = 0
KPG1 091900Z 15002KT 15/07 A303 RMK A01 T01510071  RH  059%=      5-min Rain = 0
KPG1 091901Z 18003KT 15/07 A303 RMK A01 T01520073  RH  059%=      5-min Rain = 0
KPG1 091902Z 14005KT 16/07 A303 RMK A01 T01550074  RH  059%=      5-min Rain = 0
KPG1 091903Z 16007KT 16/07 A303 RMK A01 T01550073  RH  058%=      5-min Rain = 0
KPG1 091904Z 16005KT 16/07 A303 RMK A01 T01560074  RH  058%=      5-min Rain = 0
KPG1 091905Z 16004KT 16/07 A303 RMK A01 T01580072  RH  056%=      5-min Rain = 0
KPG1 091906Z 17003KT 16/07 A303 RMK A01 T01580072  RH  057%=      5-min Rain = 0
KPG1 091907Z 15003KT 16/07 A303 RMK A01 T01580072  RH  057%=      5-min Rain = 0
KPG1 091908Z 14002KT 16/07 A303 RMK A01 T01580069  RH  055%=      5-min Rain = 0
KPG1 091909Z 19002KT 16/07 A303 RMK A01 T01570069  RH  056%=      5-min Rain = 0
KPG1 091910Z 21001KT 16/07 A3029 RMK A01 T01580070  RH  056%=      5-min Rain = 0
KPG1 091911Z 15003KT 16/07 A3029 RMK A01 T01570070  RH  056%=      5-min Rain = 0
KPG1 091912Z 15005KT 16/07 A3029 RMK A01 T01570069  RH  056%=      5-min Rain = 0
KPG1 091913Z 14004KT 16/07 A3029 RMK A01 T01560068  RH  056%=      5-min Rain = 0
KPG1 091914Z 12002KT 16/07 A3029 RMK A01 T01560065  RH  055%=      5-min Rain = 0
KPG1 091915Z 14002KT 16/07 A3029 RMK A01 T01560066  RH  055%=      5-min Rain = 0
KPG1 091916Z 18004KT 16/07 A3029 RMK A01 T01570070  RH  056%=      5-min Rain = 0
KPG1 091917Z 16005KT 16/07 A3029 RMK A01 T01570072  RH  057%=      5-min Rain = 0
KPG1 091918Z 17008KT 16/08 A3029 RMK A01 T01580075  RH  058%=      5-min Rain = 0
KPG1 091919Z 17004KT 16/07 A3029 RMK A01 T01590072  RH  056%=      5-min Rain = 0
KPG1 091920Z 16002KT 16/07 A3029 RMK A01 T01590069  RH  055%=      5-min Rain = 0
KPG1 091921Z 17004KT 16/07 A3029 RMK A01 T01600074  RH  057%=      5-min Rain = 0
KPG1 091922Z 16002KT 16/07 A3029 RMK A01 T01610071  RH  055%=      5-min Rain = 0
KPG1 091923Z 13003KT 16/07 A3029 RMK A01 T01600069  RH  055%=      5-min Rain = 0
KPG1 091924Z 12002KT 16/07 A3029 RMK A01 T01580068  RH  055%=      5-min Rain = 0
KPG1 091925Z 13002KT 16/07 A3029 RMK A01 T01570067  RH  055%=      5-min Rain = 0
KPG1 091926Z 14003KT 16/07 A3029 RMK A01 T01580071  RH  056%=      5-min Rain = 0
KPG1 091927Z 14006KT 16/07 A3029 RMK A01 T01590072  RH  056%=      5-min Rain = 0
KPG1 091928Z 15004KT 16/07 A3029 RMK A01 T01590073  RH  056%=      5-min Rain = 0
KPG1 091929Z 16006KT 16/07 A3029 RMK A01 T01600074  RH  057%=      5-min Rain = 0
KPG1 091930Z 15005KT 16/07 A3029 RMK A01 T01600070  RH  055%=      5-min Rain = 0
KPG1 091931Z 15002KT 16/07 A3029 RMK A01 T01580068  RH  055%=      5-min Rain = 0
KPG1 091932Z 16000KT 16/07 A3029 RMK A01 T01570067  RH  055%=      5-min Rain = 0
KPG1 091933Z 14001KT 16/07 A3029 RMK A01 T01560068  RH  056%=      5-min Rain = 0
KPG1 091934Z 17003KT 16/07 A3029 RMK A01 T01570071  RH  057%=      5-min Rain = 0
KPG1 091935Z 17004KT 16/07 A3028 RMK A01 T01600072  RH  056%=      5-min Rain = 0
KPG1 091936Z 18003KT 16/07 A3028 RMK A01 T01620071  RH  055%=      5-min Rain = 0
KPG1 091937Z 22002KT 16/07 A3028 RMK A01 T01620067  RH  053%=      5-min Rain = 0
KPG1 091938Z 17003KT 16/07 A3028 RMK A01 T01600069  RH  055%=      5-min Rain = 0
KPG1 091939Z 16005KT 16/07 A3028 RMK A01 T01600069  RH  055%=      5-min Rain = 0
KPG1 091940Z 14002KT 16/06 A3028 RMK A01 T01610064  RH  053%=      5-min Rain = 0
KPG1 091941Z 11003KT 16/06 A3028 RMK A01 T01590062  RH  053%=      5-min Rain = 0
KPG1 091942Z 09002KT 16/06 A3028 RMK A01 T01580064  RH  054%=      5-min Rain = 0
KPG1 091943Z 14005KT 16/07 A3028 RMK A01 T01590066  RH  054%=      5-min Rain = 0
KPG1 091944Z 13005KT 16/06 A3028 RMK A01 T01600064  RH  053%=      5-min Rain = 0
KPG1 091945Z 15005KT 16/07 A3028 RMK A01 T01590066  RH  054%=      5-min Rain = 0
KPG1 091946Z 17005KT 16/07 A3028 RMK A01 T01590066  RH  054%=      5-min Rain = 0
KPG1 091947Z 17004KT 16/07 A3028 RMK A01 T01590068  RH  055%=      5-min Rain = 0
KPG1 091948Z 17003KT 16/07 A3028 RMK A01 T01600068  RH  054%=      5-min Rain = 0
KPG1 091949Z 12001KT 16/06 A3028 RMK A01 T01600063  RH  052%=      5-min Rain = 0
KPG1 091950Z 08001KT 16/07 A3028 RMK A01 T01600065  RH  053%=      5-min Rain = 0
KPG1 091951Z 07002KT 16/07 A3028 RMK A01 T01610066  RH  053%=      5-min Rain = 0
KPG1 091952Z 08001KT 16/07 A3028 RMK A01 T01610065  RH  053%=      5-min Rain = 0
KPG1 091953Z 09002KT 16/07 A3028 RMK A01 T01620067  RH  053%=      5-min Rain = 0
KPG1 091954Z 08002KT 16/07 A3028 RMK A01 T01630065  RH  052%=      5-min Rain = 0
KPG1 091955Z 10002KT 16/07 A3028 RMK A01 T01630065  RH  052%=      5-min Rain = 0
KPG1 091956Z 11001KT 16/06 A3028 RMK A01 T01630061  RH  051%=      5-min Rain = 0
KPG1 091957Z 13003KT 16/06 A3028 RMK A01 T01620061  RH  051%=      5-min Rain = 0
KPG1 091958Z 14005KT 16/07 A3028 RMK A01 T01620065  RH  052%=      5-min Rain = 0
KPG1 091959Z 14005KT 16/07 A3028 RMK A01 T01620066  RH  053%=      5-min Rain = 0
KPG1 092000Z 15006KT 16/07 A3028 RMK A01 T01630067  RH  053%=      5-min Rain = 0
KPG1 092001Z 17006KT 16/07 A3027 RMK A01 T01640067  RH  053%=      5-min Rain = 0
KPG1 092002Z 15005KT 16/07 A3027 RMK A01 T01640065  RH  052%=      5-min Rain = 0
KPG1 092003Z 18003KT 16/07 A3027 RMK A01 T01630068  RH  053%=      5-min Rain = 0
KPG1 092004Z 18004KT 17/07 A3027 RMK A01 T01650071  RH  054%=      5-min Rain = 0
KPG1 092005Z 13005KT 17/07 A3027 RMK A01 T01670068  RH  052%=      5-min Rain = 0
KPG1 092006Z 15005KT 17/06 A3027 RMK A01 T01660064  RH  051%=      5-min Rain = 0
KPG1 092007Z 16006KT 17/07 A3027 RMK A01 T01650066  RH  052%=      5-min Rain = 0
KPG1 092008Z 17005KT 17/07 A3027 RMK A01 T01650065  RH  052%=      5-min Rain = 0
KPG1 092009Z 20003KT 17/07 A3027 RMK A01 T01650065  RH  052%=      5-min Rain = 0
KPG1 092010Z 19002KT 16/07 A3027 RMK A01 T01630065  RH  052%=      5-min Rain = 0
KPG1 092011Z 14004KT 16/07 A3027 RMK A01 T01640067  RH  052%=      5-min Rain = 0
KPG1 092012Z 09005KT 17/07 A3027 RMK A01 T01660065  RH  051%=      5-min Rain = 0
KPG1 092013Z 07003KT 16/06 A3027 RMK A01 T01640062  RH  051%=      5-min Rain = 0
KPG1 092014Z 06003KT 16/06 A3027 RMK A01 T01630063  RH  052%=      5-min Rain = 0
KPG1 092015Z 05003KT 16/06 A3027 RMK A01 T01620061  RH  051%=      5-min Rain = 0
KPG1 092016Z 03003KT 16/06 A3027 RMK A01 T01620059  RH  050%=      5-min Rain = 0
KPG1 092017Z 02002KT 16/06 A3027 RMK A01 T01610059  RH  051%=      5-min Rain = 0
KPG1 092018Z 07001KT 16/06 A3027 RMK A01 T01600062  RH  052%=      5-min Rain = 0
KPG1 092019Z 04001KT 16/06 A3027 RMK A01 T01610060  RH  051%=      5-min Rain = 0
KPG1 092020Z 03001KT 16/06 A3027 RMK A01 T01610061  RH  051%=      5-min Rain = 0
KPG1 092021Z 14002KT 16/06 A3027 RMK A01 T01630064  RH  052%=      5-min Rain = 0
KPG1 092022Z 12003KT 17/06 A3027 RMK A01 T01660064  RH  051%=      5-min Rain = 0
KPG1 092023Z 11005KT 17/06 A3027 RMK A01 T01680062  RH  050%=      5-min Rain = 0
KPG1 092024Z 11002KT 17/06 A3027 RMK A01 T01680060  RH  049%=      5-min Rain = 0
KPG1 092025Z 11002KT 17/06 A3027 RMK A01 T01670060  RH  049%=      5-min Rain = 0
KPG1 092026Z 13004KT 17/06 A3027 RMK A01 T01690062  RH  049%=      5-min Rain = 0
KPG1 092027Z 12004KT 17/06 A3027 RMK A01 T01700060  RH  048%=      5-min Rain = 0
KPG1 092028Z 12004KT 17/06 A3027 RMK A01 T01690056  RH  047%=      5-min Rain = 0
KPG1 092029Z 12003KT 17/06 A3027 RMK A01 T01660055  RH  048%=      5-min Rain = 0
KPG1 092030Z 09002KT 17/06 A3027 RMK A01 T01660056  RH  048%=      5-min Rain = 0
KPG1 092031Z 09001KT 17/05 A3027 RMK A01 T01670054  RH  047%=      5-min Rain = 0
KPG1 092032Z 07002KT 17/05 A3027 RMK A01 T01660052  RH  047%=      5-min Rain = 0
KPG1 092033Z 09001KT 17/05 A3027 RMK A01 T01660053  RH  047%=      5-min Rain = 0
KPG1 092034Z 04001KT 17/05 A3027 RMK A01 T01660054  RH  048%=      5-min Rain = 0
KPG1 092035Z 32001KT 17/06 A3027 RMK A01 T01660055  RH  048%=      5-min Rain = 0
KPG1 092036Z 28002KT 17/05 A3027 RMK A01 T01660053  RH  047%=      5-min Rain = 0
KPG1 092037Z 28002KT 17/05 A3026 RMK A01 T01650053  RH  048%=      5-min Rain = 0
KPG1 092038Z 23001KT 17/06 A3026 RMK A01 T01650055  RH  048%=      5-min Rain = 0
KPG1 092039Z 24002KT 17/06 A3026 RMK A01 T01650056  RH  048%=      5-min Rain = 0
KPG1 092040Z 23002KT 17/06 A3026 RMK A01 T01650056  RH  048%=      5-min Rain = 0
KPG1 092041Z 23002KT 17/06 A3026 RMK A01 T01670057  RH  048%=      5-min Rain = 0
KPG1 092042Z 26000KT 17/06 A3026 RMK A01 T01670057  RH  048%=      5-min Rain = 0
KPG1 092043Z 16003KT 17/06 A3026 RMK A01 T01680060  RH  049%=      5-min Rain = 0
KPG1 092044Z 08003KT 17/06 A3026 RMK A01 T01710063  RH  049%=      5-min Rain = 0
KPG1 092045Z 12002KT 17/06 A3026 RMK A01 T01720061  RH  048%=      5-min Rain = 0
KPG1 092046Z 13005KT 17/06 A3026 RMK A01 T01720057  RH  046%=      5-min Rain = 0
KPG1 092047Z 10005KT 17/06 A3026 RMK A01 T01710055  RH  046%=      5-min Rain = 0
KPG1 092048Z 10003KT 17/05 A3026 RMK A01 T01680054  RH  047%=      5-min Rain = 0
KPG1 092049Z 08003KT 17/06 A3026 RMK A01 T01680055  RH  047%=      5-min Rain = 0
KPG1 092050Z 06003KT 17/06 A3026 RMK A01 T01670057  RH  048%=      5-min Rain = 0
KPG1 092051Z 06005KT 17/07 A3026 RMK A01 T01670066  RH  051%=      5-min Rain = 0
KPG1 092052Z 08007KT 17/07 A3026 RMK A01 T01670065  RH  051%=      5-min Rain = 0
KPG1 092053Z 09007KT 17/06 A3026 RMK A01 T01650063  RH  051%=      5-min Rain = 0
KPG1 092054Z 10005KT 16/07 A3026 RMK A01 T01630065  RH  052%=      5-min Rain = 0
KPG1 092055Z 08005KT 16/07 A3026 RMK A01 T01620065  RH  053%=      5-min Rain = 0
KPG1 092056Z 06007KT 16/07 A3026 RMK A01 T01630067  RH  053%=      5-min Rain = 0
KPG1 092057Z 05005KT 16/07 A3026 RMK A01 T01630065  RH  052%=      5-min Rain = 0
KPG1 092058Z 04005KT 16/07 A3026 RMK A01 T01610065  RH  053%=      5-min Rain = 0
KPG1 092059Z 05006KT 16/07 A3026 RMK A01 T01610065  RH  053%=      5-min Rain = 0
KPG1 092100Z 06007KT 16/07 A3026 RMK A01 T01610065  RH  053%=      5-min Rain = 0
KPG1 092101Z 05006KT 16/06 A3026 RMK A01 T01600063  RH  052%=      5-min Rain = 0
KPG1 092102Z 05008KT 16/07 A3026 RMK A01 T01600065  RH  053%=      5-min Rain = 0
KPG1 092103Z 06008KT 16/07 A3026 RMK A01 T01610066  RH  053%=      5-min Rain = 0
KPG1 092104Z 06006KT 16/06 A3026 RMK A01 T01610064  RH  053%=      5-min Rain = 0
KPG1 092105Z 06007KT 16/07 A3026 RMK A01 T01610065  RH  053%=      5-min Rain = 0
KPG1 092106Z 05007KT 16/07 A3026 RMK A01 T01610065  RH  053%=      5-min Rain = 0
KPG1 092107Z 05008G13KT 16/06 A3026 RMK A01 T01610064  RH  053%=      5-min Rain = 0
KPG1 092108Z 10008KT 16/06 A3026 RMK A01 T01620064  RH  052%=      5-min Rain = 0
KPG1 092109Z 09007KT 16/06 A3026 RMK A01 T01620064  RH  052%=      5-min Rain = 0
KPG1 092110Z 08008KT 16/06 A3026 RMK A01 T01630064  RH  052%=      5-min Rain = 0
KPG1 092111Z 07009KT 16/06 A3026 RMK A01 T01630063  RH  052%=      5-min Rain = 0
KPG1 092112Z 07009KT 16/06 A3026 RMK A01 T01620061  RH  051%=      5-min Rain = 0
KPG1 092113Z 07007KT 16/06 A3026 RMK A01 T01610063  RH  052%=      5-min Rain = 0
KPG1 092114Z 07008KT 16/06 A3026 RMK A01 T01610063  RH  052%=      5-min Rain = 0
KPG1 092115Z 06008KT 16/06 A3026 RMK A01 T01610061  RH  051%=      5-min Rain = 0
KPG1 092116Z 05008KT 16/06 A3026 RMK A01 T01600062  RH  052%=      5-min Rain = 0
KPG1 092117Z 08009KT 16/06 A3026 RMK A01 T01610063  RH  052%=      5-min Rain = 0
KPG1 092118Z 08009KT 16/06 A3026 RMK A01 T01610060  RH  051%=      5-min Rain = 0
KPG1 092119Z 06008KT 16/06 A3026 RMK A01 T01590059  RH  051%=      5-min Rain = 0
KPG1 092120Z 05008KT 16/06 A3026 RMK A01 T01580059  RH  052%=      5-min Rain = 0
KPG1 092121Z 06008KT 16/06 A3026 RMK A01 T01580061  RH  052%=      5-min Rain = 0
KPG1 092122Z 07009KT 16/06 A3026 RMK A01 T01600062  RH  052%=      5-min Rain = 0
KPG1 092123Z 08005KT 16/06 A3026 RMK A01 T01600059  RH  051%=      5-min Rain = 0
KPG1 092124Z 05006KT 16/06 A3026 RMK A01 T01590061  RH  052%=      5-min Rain = 0
KPG1 092125Z 06008KT 16/06 A3026 RMK A01 T01600061  RH  052%=      5-min Rain = 0
KPG1 092126Z 07007KT 16/06 A3026 RMK A01 T01620062  RH  052%=      5-min Rain = 0
KPG1 092127Z 07006KT 16/06 A3026 RMK A01 T01620061  RH  051%=      5-min Rain = 0
KPG1 092128Z 07008KT 16/06 A3026 RMK A01 T01630064  RH  052%=      5-min Rain = 0
KPG1 092129Z 07008KT 16/06 A3026 RMK A01 T01640062  RH  051%=      5-min Rain = 0
KPG1 092130Z 08010KT 16/06 A3026 RMK A01 T01640061  RH  050%=      5-min Rain = 0
KPG1 092131Z 07007KT 16/06 A3026 RMK A01 T01630058  RH  050%=      5-min Rain = 0
KPG1 092132Z 06006KT 16/06 A3026 RMK A01 T01610057  RH  050%=      5-min Rain = 0
KPG1 092133Z 05007KT 16/06 A3026 RMK A01 T01600057  RH  050%=      5-min Rain = 0
KPG1 092134Z 06006KT 16/06 A3026 RMK A01 T01600057  RH  051%=      5-min Rain = 0
KPG1 092135Z 07008KT 16/06 A3026 RMK A01 T01600059  RH  051%=      5-min Rain = 0
KPG1 092136Z 08009KT 16/06 A3026 RMK A01 T01610057  RH  050%=      5-min Rain = 0
KPG1 092137Z 09010KT 16/06 A3026 RMK A01 T01600057  RH  050%=      5-min Rain = 0
KPG1 092138Z 07008KT 16/06 A3026 RMK A01 T01600056  RH  050%=      5-min Rain = 0
KPG1 092139Z 07007KT 16/06 A3026 RMK A01 T01600058  RH  051%=      5-min Rain = 0
KPG1 092140Z 07008KT 16/06 A3026 RMK A01 T01600056  RH  050%=      5-min Rain = 0
KPG1 092141Z 09007KT 16/06 A3026 RMK A01 T01600056  RH  050%=      5-min Rain = 0
KPG1 092142Z 07007KT 16/06 A3026 RMK A01 T01600055  RH  050%=      5-min Rain = 0
KPG1 092143Z 06008KT 16/05 A3026 RMK A01 T01600054  RH  050%=      5-min Rain = 0
KPG1 092144Z 06007KT 16/05 A3026 RMK A01 T01590054  RH  050%=      5-min Rain = 0
KPG1 092145Z 06007KT 16/05 A3026 RMK A01 T01590054  RH  050%=      5-min Rain = 0
KPG1 092146Z 04007KT 16/06 A3026 RMK A01 T01590055  RH  050%=      5-min Rain = 0
KPG1 092147Z 06007KT 16/06 A3026 RMK A01 T01610057  RH  050%=      5-min Rain = 0
KPG1 092148Z 07010KT 16/06 A3026 RMK A01 T01620056  RH  049%=      5-min Rain = 0
KPG1 092149Z 07009KT 16/06 A3026 RMK A01 T01620056  RH  050%=      5-min Rain = 0
KPG1 092150Z 07008KT 16/06 A3026 RMK A01 T01620055  RH  049%=      5-min Rain = 0
KPG1 092151Z 08005KT 16/06 A3026 RMK A01 T01610055  RH  049%=      5-min Rain = 0
KPG1 092152Z 07009KT 16/06 A3026 RMK A01 T01610055  RH  049%=      5-min Rain = 0
KPG1 092153Z 08008KT 16/06 A3026 RMK A01 T01620055  RH  049%=      5-min Rain = 0
KPG1 092154Z 08008KT 16/05 A3026 RMK A01 T01610054  RH  049%=      5-min Rain = 0
KPG1 092155Z 07009KT 16/05 A3026 RMK A01 T01590052  RH  049%=      5-min Rain = 0
KPG1 092156Z 07008KT 16/05 A3026 RMK A01 T01590053  RH  049%=      5-min Rain = 0
KPG1 092157Z 08006KT 16/05 A3026 RMK A01 T01590054  RH  050%=      5-min Rain = 0
KPG1 092158Z 07007KT 16/06 A3026 RMK A01 T01600055  RH  049%=      5-min Rain = 0
KPG1 092159Z 07008KT 16/05 A3026 RMK A01 T01600051  RH  048%=      5-min Rain = 0
KPG1 092200Z 07009KT 16/05 A3026 RMK A01 T01590050  RH  049%=      5-min Rain = 0
KPG1 092201Z 07008KT 16/05 A3026 RMK A01 T01580050  RH  048%=      5-min Rain = 0
KPG1 092202Z 08008KT 16/05 A3026 RMK A01 T01580053  RH  049%=      5-min Rain = 0
KPG1 092203Z 06008KT 16/05 A3026 RMK A01 T01590051  RH  049%=      5-min Rain = 0
KPG1 092204Z 07008KT 16/05 A3025 RMK A01 T01590051  RH  049%=      5-min Rain = 0
KPG1 092205Z 06008KT 16/05 A3025 RMK A01 T01600051  RH  049%=      5-min Rain = 0
KPG1 092206Z 06005KT 16/05 A3025 RMK A01 T01600053  RH  049%=      5-min Rain = 0
KPG1 092207Z 08006KT 16/05 A3025 RMK A01 T01610054  RH  049%=      5-min Rain = 0
KPG1 092208Z 09008KT 16/05 A3025 RMK A01 T01620052  RH  048%=      5-min Rain = 0
KPG1 092209Z 06009KT 16/05 A3025 RMK A01 T01620052  RH  048%=      5-min Rain = 0
KPG1 092210Z 06010KT 16/06 A3026 RMK A01 T01620055  RH  049%=      5-min Rain = 0
KPG1 092211Z 05010KT 16/06 A3026 RMK A01 T01600059  RH  051%=      5-min Rain = 0
KPG1 092212Z 07010KT 16/06 A3026 RMK A01 T01580060  RH  052%=      5-min Rain = 0
KPG1 092213Z 08010KT 16/06 A3026 RMK A01 T01570063  RH  053%=      5-min Rain = 0
KPG1 092214Z 06010KT 16/06 A3026 RMK A01 T01570063  RH  054%=      5-min Rain = 0
KPG1 092215Z 06012KT 16/06 A3026 RMK A01 T01560064  RH  054%=      5-min Rain = 0
KPG1 092216Z 07013KT 15/06 A3026 RMK A01 T01530063  RH  055%=      5-min Rain = 0
KPG1 092217Z 07013KT 15/06 A3026 RMK A01 T01510063  RH  056%=      5-min Rain = 0
KPG1 092218Z 06010KT 15/06 A3026 RMK A01 T01500064  RH  056%=      5-min Rain = 0
KPG1 092219Z 06013KT 15/07 A3026 RMK A01 T01500065  RH  057%=      5-min Rain = 0
KPG1 092220Z 06012KT 15/07 A3026 RMK A01 T01500065  RH  057%=      5-min Rain = 0
KPG1 092221Z 06013KT 15/06 A3026 RMK A01 T01490064  RH  057%=      5-min Rain = 0
KPG1 092222Z 05011KT 15/06 A3026 RMK A01 T01490064  RH  057%=      5-min Rain = 0
KPG1 092223Z 06014KT 15/06 A3026 RMK A01 T01490064  RH  057%=      5-min Rain = 0
KPG1 092224Z 07013KT 15/06 A3026 RMK A01 T01480062  RH  057%=      5-min Rain = 0
KPG1 092225Z 06013KT 15/06 A3026 RMK A01 T01460062  RH  057%=      5-min Rain = 0
KPG1 092226Z 06011KT 15/06 A3026 RMK A01 T01470064  RH  057%=      5-min Rain = 0
KPG1 092227Z 06011KT 15/06 A3026 RMK A01 T01470063  RH  057%=      5-min Rain = 0
KPG1 092228Z 06013KT 15/06 A3026 RMK A01 T01470063  RH  057%=      5-min Rain = 0
KPG1 092229Z 07012KT 15/06 A3026 RMK A01 T01470063  RH  057%=      5-min Rain = 0
KPG1 092230Z 07012KT 15/06 A3026 RMK A01 T01460064  RH  058%=      5-min Rain = 0
KPG1 092231Z 06012KT 15/06 A3026 RMK A01 T01470064  RH  058%=      5-min Rain = 0
KPG1 092232Z 06013KT 15/06 A3026 RMK A01 T01460063  RH  058%=      5-min Rain = 0
KPG1 092233Z 05012KT 15/06 A3026 RMK A01 T01450062  RH  057%=      5-min Rain = 0
KPG1 092234Z 06011KT 14/06 A3026 RMK A01 T01440063  RH  058%=      5-min Rain = 0
KPG1 092235Z 04012KT 14/06 A3026 RMK A01 T01440063  RH  058%=      5-min Rain = 0
KPG1 092236Z 06013KT 14/06 A3026 RMK A01 T01440062  RH  058%=      5-min Rain = 0
KPG1 092237Z 06014KT 14/06 A3026 RMK A01 T01440063  RH  058%=      5-min Rain = 0
KPG1 092238Z 06013KT 14/06 A3026 RMK A01 T01430061  RH  058%=      5-min Rain = 0
KPG1 092239Z 05012KT 14/06 A3026 RMK A01 T01420061  RH  058%=      5-min Rain = 0
KPG1 092240Z 05012KT 14/06 A3026 RMK A01 T01420061  RH  058%=      5-min Rain = 0
KPG1 092241Z 06011G16KT 14/06 A3026 RMK A01 T01420061  RH  058%=      5-min Rain = 0
KPG1 092242Z 06012KT 14/06 A3026 RMK A01 T01420062  RH  059%=      5-min Rain = 0
KPG1 092243Z 06015KT 14/06 A3026 RMK A01 T01430062  RH  058%=      5-min Rain = 0
KPG1 092244Z 06013KT 14/06 A3026 RMK A01 T01420061  RH  058%=      5-min Rain = 0
KPG1 092245Z 06012KT 14/06 A3026 RMK A01 T01410060  RH  058%=      5-min Rain = 0
KPG1 092246Z 05012KT 14/06 A3026 RMK A01 T01400060  RH  059%=      5-min Rain = 0
KPG1 092247Z 05013KT 14/06 A3026 RMK A01 T01410061  RH  059%=      5-min Rain = 0
KPG1 092248Z 05013KT 14/06 A3026 RMK A01 T01400059  RH  058%=      5-min Rain = 0
KPG1 092249Z 05013KT 14/06 A3026 RMK A01 T01390060  RH  059%=      5-min Rain = 0
KPG1 092250Z 06012KT 14/06 A3026 RMK A01 T01390060  RH  059%=      5-min Rain = 0
KPG1 092251Z 06015KT 14/06 A3026 RMK A01 T01390060  RH  059%=      5-min Rain = 0
KPG1 092252Z 06014KT 14/06 A3026 RMK A01 T01380060  RH  059%=      5-min Rain = 0
KPG1 092253Z 06015KT 14/06 A3026 RMK A01 T01380059  RH  059%=      5-min Rain = 0
KPG1 092254Z 06014KT 14/06 A3026 RMK A01 T01380058  RH  059%=      5-min Rain = 0
KPG1 092255Z 05013KT 14/06 A3026 RMK A01 T01380058  RH  059%=      5-min Rain = 0
KPG1 092256Z 06012KT 14/06 A3026 RMK A01 T01370059  RH  059%=      5-min Rain = 0
KPG1 092257Z 05011KT 14/06 A3026 RMK A01 T01370060  RH  060%=      5-min Rain = 0
KPG1 092258Z 04013KT 14/06 A3026 RMK A01 T01370059  RH  060%=      5-min Rain = 0
KPG1 092259Z 04010KT 14/06 A3026 RMK A01 T01360059  RH  060%=      5-min Rain = 0
KPG1 092300Z 03013G18KT 14/06 A3026 RMK A01 T01360059  RH  060%=      5-min Rain = 0
KPG1 092301Z 03014KT 14/06 A3026 RMK A01 T01350057  RH  059%=      5-min Rain = 0
KPG1 092302Z 04013KT 14/06 A3026 RMK A01 T01350057  RH  059%=      5-min Rain = 0
KPG1 092303Z 03014KT 14/06 A3026 RMK A01 T01350057  RH  059%=      5-min Rain = 0
KPG1 092304Z 03014KT 14/06 A3026 RMK A01 T01350057  RH  059%=      5-min Rain = 0
KPG1 092305Z 04014KT 14/06 A3026 RMK A01 T01350057  RH  059%=      5-min Rain = 0
KPG1 092306Z 04013KT 13/06 A3026 RMK A01 T01340057  RH  060%=      5-min Rain = 0
KPG1 092307Z 04012KT 13/06 A3026 RMK A01 T01340058  RH  060%=      5-min Rain = 0
KPG1 092308Z 04012KT 13/06 A3026 RMK A01 T01340057  RH  060%=      5-min Rain = 0
KPG1 092309Z 05012KT 13/06 A3026 RMK A01 T01340057  RH  059%=      5-min Rain = 0
KPG1 092310Z 05011KT 13/06 A3026 RMK A01 T01340058  RH  060%=      5-min Rain = 0
KPG1 092311Z 04010KT 13/06 A3026 RMK A01 T01340059  RH  060%=      5-min Rain = 0
KPG1 092312Z 05012KT 13/06 A3026 RMK A01 T01330058  RH  060%=      5-min Rain = 0
KPG1 092313Z 05012KT 13/06 A3026 RMK A01 T01330058  RH  061%=      5-min Rain = 0
KPG1 092314Z 04011KT 13/06 A3026 RMK A01 T01330058  RH  061%=      5-min Rain = 0
KPG1 092315Z 05011KT 13/06 A3026 RMK A01 T01330059  RH  061%=      5-min Rain = 0
KPG1 092316Z 04012KT 13/06 A3026 RMK A01 T01330059  RH  061%=      5-min Rain = 0
KPG1 092317Z 04013KT 13/06 A3026 RMK A01 T01320058  RH  061%=      5-min Rain = 0
KPG1 092318Z 05012KT 13/06 A3027 RMK A01 T01320058  RH  061%=      5-min Rain = 0
KPG1 092319Z 05011KT 13/06 A3027 RMK A01 T01320059  RH  061%=      5-min Rain = 0
KPG1 092320Z 04012KT 13/06 A3027 RMK A01 T01320060  RH  062%=      5-min Rain = 0
KPG1 092321Z 04012KT 13/06 A3027 RMK A01 T01310058  RH  061%=      5-min Rain = 0
KPG1 092322Z 04011KT 13/06 A3027 RMK A01 T01300057  RH  061%=      5-min Rain = 0
KPG1 092323Z 05013KT 13/06 A3027 RMK A01 T01290057  RH  061%=      5-min Rain = 0
KPG1 092324Z 05012KT 13/06 A3027 RMK A01 T01290057  RH  062%=      5-min Rain = 0
KPG1 092325Z 05012KT 13/06 A3027 RMK A01 T01290058  RH  062%=      5-min Rain = 0
KPG1 092326Z 05010KT 13/06 A3027 RMK A01 T01280058  RH  062%=      5-min Rain = 0
KPG1 092327Z 05011KT 13/06 A3027 RMK A01 T01280058  RH  062%=      5-min Rain = 0
KPG1 092328Z 05011KT 13/06 A3027 RMK A01 T01280056  RH  062%=      5-min Rain = 0
KPG1 092329Z 04013KT 13/06 A3027 RMK A01 T01280057  RH  062%=      5-min Rain = 0
KPG1 092330Z 04014KT 13/05 A3027 RMK A01 T01270054  RH  061%=      5-min Rain = 0
KPG1 092331Z 03015KT 13/05 A3027 RMK A01 T01260053  RH  061%=      5-min Rain = 0
KPG1 092332Z 04014KT 13/05 A3027 RMK A01 T01250053  RH  061%=      5-min Rain = 0
KPG1 092333Z 04014KT 13/05 A3027 RMK A01 T01250053  RH  061%=      5-min Rain = 0
KPG1 092334Z 04015KT 13/05 A3027 RMK A01 T01250054  RH  062%=      5-min Rain = 0
KPG1 092335Z 03015KT 12/05 A3027 RMK A01 T01240053  RH  062%=      5-min Rain = 0
KPG1 092336Z 04016KT 12/05 A3027 RMK A01 T01240053  RH  062%=      5-min Rain = 0
KPG1 092337Z 04014KT 12/05 A3027 RMK A01 T01240053  RH  062%=      5-min Rain = 0
KPG1 092338Z 04014KT 12/05 A3027 RMK A01 T01240053  RH  062%=      5-min Rain = 0
KPG1 092339Z 04013KT 12/05 A3027 RMK A01 T01230053  RH  062%=      5-min Rain = 0
KPG1 092340Z 04015KT 12/05 A3027 RMK A01 T01230053  RH  062%=      5-min Rain = 0
KPG1 092341Z 04015KT 12/05 A3027 RMK A01 T01230053  RH  062%=      5-min Rain = 0
KPG1 092342Z 04014KT 12/05 A3027 RMK A01 T01230052  RH  062%=      5-min Rain = 0
KPG1 092343Z 04013G18KT 12/05 A3027 RMK A01 T01220051  RH  062%=      5-min Rain = 0
KPG1 092344Z 04013KT 12/05 A3027 RMK A01 T01210051  RH  062%=      5-min Rain = 0
KPG1 092345Z 03014KT 12/05 A3027 RMK A01 T01210051  RH  062%=      5-min Rain = 0
KPG1 092346Z 03015KT 12/05 A3028 RMK A01 T01200051  RH  063%=      5-min Rain = 0
KPG1 092347Z 04015KT 12/05 A3028 RMK A01 T01190050  RH  062%=      5-min Rain = 0
KPG1 092348Z 03014KT 12/05 A3028 RMK A01 T01190050  RH  063%=      5-min Rain = 0
KPG1 092349Z 03016KT 12/05 A3028 RMK A01 T01190050  RH  063%=      5-min Rain = 0
KPG1 092350Z 03015KT 12/05 A3028 RMK A01 T01180050  RH  063%=      5-min Rain = 0
KPG1 092351Z 03016KT 12/05 A3028 RMK A01 T01180050  RH  063%=      5-min Rain = 0
KPG1 092352Z 03016KT 12/05 A3028 RMK A01 T01180050  RH  063%=      5-min Rain = 0
KPG1 092353Z 04016KT 12/05 A3028 RMK A01 T01170050  RH  063%=      5-min Rain = 0
KPG1 092354Z 03015KT 12/05 A3028 RMK A01 T01170050  RH  063%=      5-min Rain = 0
KPG1 092355Z 03016KT 12/05 A3028 RMK A01 T01170050  RH  064%=      5-min Rain = 0
KPG1 092356Z 03016KT 12/05 A3028 RMK A01 T01160050  RH  064%=      5-min Rain = 0
KPG1 092357Z 03016KT 12/05 A3028 RMK A01 T01160051  RH  064%=      5-min Rain = 0
KPG1 092358Z 03015KT 12/05 A3028 RMK A01 T01160051  RH  064%=      5-min Rain = 0
KPG1 092359Z 03016KT 12/05 A3028 RMK A01 T01160051  RH  064%=      5-min Rain = 0
KPG1 100000Z 03015KT 12/05 A3028 RMK A01 T01150050  RH  064%=      5-min Rain = 0
KPG1 100001Z 04016KT 12/05 A3028 RMK A01 T01150050  RH  064%=      5-min Rain = 0
KPG1 100002Z 03014KT 12/05 A3028 RMK A01 T01150051  RH  065%=      5-min Rain = 0
KPG1 100003Z 03016KT 11/05 A3028 RMK A01 T01140051  RH  065%=      5-min Rain = 0
KPG1 100004Z 04015KT 11/05 A3028 RMK A01 T01140050  RH  065%=      5-min Rain = 0
KPG1 100005Z 04014G19KT 11/05 A3029 RMK A01 T01140049  RH  065%=      5-min Rain = 0
KPG1 100006Z 03016KT 11/05 A3029 RMK A01 T01140049  RH  065%=      5-min Rain = 0
KPG1 100007Z 03015KT 11/05 A3029 RMK A01 T01140049  RH  064%=      5-min Rain = 0
KPG1 100008Z 03015KT 11/05 A3029 RMK A01 T01130049  RH  065%=      5-min Rain = 0
KPG1 100009Z 03015KT 11/05 A3029 RMK A01 T01130049  RH  065%=      5-min Rain = 0
KPG1 100010Z 03017KT 11/05 A3029 RMK A01 T01120049  RH  065%=      5-min Rain = 0
KPG1 100011Z 03015KT 11/05 A3029 RMK A01 T01120048  RH  065%=      5-min Rain = 0
KPG1 100012Z 03015KT 11/05 A3029 RMK A01 T01110049  RH  065%=      5-min Rain = 0
KPG1 100013Z 03016KT 11/05 A3029 RMK A01 T01110049  RH  065%=      5-min Rain = 0
KPG1 100014Z 03015KT 11/05 A3029 RMK A01 T01110049  RH  066%=      5-min Rain = 0
KPG1 100015Z 03015KT 11/05 A3029 RMK A01 T01100049  RH  066%=      5-min Rain = 0
KPG1 100016Z 03015KT 11/05 A3029 RMK A01 T01100049  RH  066%=      5-min Rain = 0
KPG1 100017Z 03015KT 11/05 A3029 RMK A01 T01110049  RH  066%=      5-min Rain = 0
KPG1 100018Z 03016KT 11/05 A3029 RMK A01 T01100049  RH  066%=      5-min Rain = 0
KPG1 100019Z 04014KT 11/05 A3029 RMK A01 T01100049  RH  066%=      5-min Rain = 0
KPG1 100020Z 03015KT 11/05 A3029 RMK A01 T01100049  RH  066%=      5-min Rain = 0
KPG1 100021Z 03014KT 11/05 A3029 RMK A01 T01100050  RH  066%=      5-min Rain = 0
KPG1 100022Z 03014KT 11/05 A3029 RMK A01 T01090050  RH  067%=      5-min Rain = 0
KPG1 100023Z 03015KT 11/05 A3029 RMK A01 T01090050  RH  067%=      5-min Rain = 0
KPG1 100024Z 03014KT 11/05 A3029 RMK A01 T01090050  RH  067%=      5-min Rain = 0
KPG1 100025Z 03014KT 11/05 A3029 RMK A01 T01090050  RH  067%=      5-min Rain = 0
KPG1 100026Z 03015KT 11/05 A3029 RMK A01 T01090050  RH  067%=      5-min Rain = 0
KPG1 100027Z 03015KT 11/05 A3029 RMK A01 T01090050  RH  067%=      5-min Rain = 0
KPG1 100028Z 03015KT 11/05 A3029 RMK A01 T01090050  RH  067%=      5-min Rain = 0
KPG1 100029Z 03016KT 11/05 A3029 RMK A01 T01080050  RH  067%=      5-min Rain = 0
KPG1 100030Z 03015KT 11/05 A3029 RMK A01 T01080049  RH  067%=      5-min Rain = 0
KPG1 100031Z 03015KT 11/05 A3029 RMK A01 T01080049  RH  067%=      5-min Rain = 0
KPG1 100032Z 03016KT 11/05 A3029 RMK A01 T01080049  RH  067%=      5-min Rain = 0
KPG1 100033Z 03015KT 11/05 A3029 RMK A01 T01080049  RH  067%=      5-min Rain = 0
KPG1 100034Z 04015KT 11/05 A3029 RMK A01 T01070049  RH  067%=      5-min Rain = 0
KPG1 100035Z 03014KT 11/05 A303 RMK A01 T01070049  RH  067%=      5-min Rain = 0
KPG1 100036Z 03015KT 11/05 A303 RMK A01 T01070048  RH  067%=      5-min Rain = 0
KPG1 100037Z 03014KT 11/05 A303 RMK A01 T01070048  RH  067%=      5-min Rain = 0
KPG1 100038Z 03015KT 11/05 A303 RMK A01 T01070048  RH  067%=      5-min Rain = 0
KPG1 100039Z 03015KT 11/05 A303 RMK A01 T01070048  RH  067%=      5-min Rain = 0
KPG1 100040Z 03015KT 11/05 A303 RMK A01 T01070047  RH  067%=      5-min Rain = 0
KPG1 100041Z 03014KT 11/05 A303 RMK A01 T01070048  RH  067%=      5-min Rain = 0
KPG1 100042Z 03013KT 11/05 A303 RMK A01 T01060049  RH  068%=      5-min Rain = 0
KPG1 100043Z 03015KT 11/05 A303 RMK A01 T01050048  RH  068%=      5-min Rain = 0
KPG1 100044Z 04016KT 11/05 A303 RMK A01 T01050048  RH  068%=      5-min Rain = 0
KPG1 100045Z 03015KT 11/05 A303 RMK A01 T01050048  RH  068%=      5-min Rain = 0
KPG1 100046Z 03015KT 11/05 A303 RMK A01 T01050049  RH  068%=      5-min Rain = 0
KPG1 100047Z 03016KT 11/05 A303 RMK A01 T01050049  RH  068%=      5-min Rain = 0
KPG1 100048Z 04014KT 11/05 A303 RMK A01 T01050048  RH  068%=      5-min Rain = 0
KPG1 100049Z 03014KT 11/05 A303 RMK A01 T01050049  RH  068%=      5-min Rain = 0
KPG1 100050Z 03014KT 10/05 A303 RMK A01 T01040049  RH  068%=      5-min Rain = 0
KPG1 100051Z 03014KT 10/05 A303 RMK A01 T01040049  RH  069%=      5-min Rain = 0
KPG1 100052Z 03015KT 10/05 A303 RMK A01 T01040048  RH  069%=      5-min Rain = 0
KPG1 100053Z 03013KT 10/05 A303 RMK A01 T01030048  RH  068%=      5-min Rain = 0
KPG1 100054Z 03015KT 10/05 A303 RMK A01 T01030048  RH  069%=      5-min Rain = 0
KPG1 100055Z 03014KT 10/05 A303 RMK A01 T01030048  RH  069%=      5-min Rain = 0
KPG1 100056Z 04014KT 10/05 A303 RMK A01 T01030047  RH  069%=      5-min Rain = 0
KPG1 100057Z 04014KT 10/05 A303 RMK A01 T01030048  RH  068%=      5-min Rain = 0
KPG1 100058Z 03014KT 10/05 A303 RMK A01 T01030048  RH  069%=      5-min Rain = 0
KPG1 100059Z 03013KT 10/05 A3031 RMK A01 T01030049  RH  069%=      5-min Rain = 0
KPG1 100100Z 03014KT 10/05 A3031 RMK A01 T01010049  RH  070%=      5-min Rain = 0
KPG1 100101Z 03014KT 10/05 A3031 RMK A01 T01010049  RH  070%=      5-min Rain = 0
KPG1 100102Z 03015KT 10/05 A3031 RMK A01 T01010049  RH  070%=      5-min Rain = 0
KPG1 100103Z 03014KT 10/05 A3031 RMK A01 T01010049  RH  070%=      5-min Rain = 0
KPG1 100104Z 03013KT 10/05 A3031 RMK A01 T01010049  RH  070%=      5-min Rain = 0
KPG1 100105Z 03013KT 10/05 A3031 RMK A01 T01000050  RH  071%=      5-min Rain = 0
KPG1 100106Z 03012KT 10/05 A3031 RMK A01 T01000050  RH  071%=      5-min Rain = 0
KPG1 100107Z 03012KT 10/05 A3031 RMK A01 T00990050  RH  072%=      5-min Rain = 0
KPG1 100108Z 03013KT 10/05 A3031 RMK A01 T00980050  RH  072%=      5-min Rain = 0
KPG1 100109Z 02014KT 10/05 A3031 RMK A01 T00990050  RH  072%=      5-min Rain = 0
KPG1 100110Z 02014KT 10/05 A3031 RMK A01 T00990049  RH  071%=      5-min Rain = 0
KPG1 100111Z 02013KT 10/05 A3031 RMK A01 T00990049  RH  071%=      5-min Rain = 0
KPG1 100112Z 03013KT 10/05 A3031 RMK A01 T01000049  RH  071%=      5-min Rain = 0
KPG1 100113Z 02012KT 10/05 A3031 RMK A01 T01000049  RH  071%=      5-min Rain = 0
KPG1 100114Z 02015KT 10/05 A3031 RMK A01 T01000049  RH  071%=      5-min Rain = 0
KPG1 100115Z 02013KT 10/05 A3031 RMK A01 T01000048  RH  070%=      5-min Rain = 0
KPG1 100116Z 02012KT 10/05 A3031 RMK A01 T01000049  RH  070%=      5-min Rain = 0
KPG1 100117Z 02013KT 10/05 A3031 RMK A01 T01000050  RH  071%=      5-min Rain = 0
KPG1 100118Z 02014KT 10/05 A3031 RMK A01 T01000049  RH  071%=      5-min Rain = 0
KPG1 100119Z 02014KT 10/05 A3031 RMK A01 T01000048  RH  070%=      5-min Rain = 0
KPG1 100120Z 02013KT 10/05 A3031 RMK A01 T01000048  RH  070%=      5-min Rain = 0
KPG1 100121Z 02015KT 10/05 A3031 RMK A01 T01000048  RH  070%=      5-min Rain = 0
KPG1 100122Z 02014KT 10/05 A3031 RMK A01 T01000047  RH  070%=      5-min Rain = 0
KPG1 100123Z 02013KT 10/05 A3032 RMK A01 T01000048  RH  070%=      5-min Rain = 0
KPG1 100124Z 02014KT 10/05 A3032 RMK A01 T01000048  RH  070%=      5-min Rain = 0
KPG1 100125Z 02014KT 10/05 A3031 RMK A01 T01000048  RH  070%=      5-min Rain = 0
KPG1 100126Z 02014KT 10/05 A3031 RMK A01 T01000047  RH  070%=      5-min Rain = 0
KPG1 100127Z 02013KT 10/05 A3031 RMK A01 T01000048  RH  070%=      5-min Rain = 0
KPG1 100128Z 02015KT 10/05 A3031 RMK A01 T01000048  RH  070%=      5-min Rain = 0
KPG1 100129Z 02015KT 10/05 A3031 RMK A01 T00990047  RH  070%=      5-min Rain = 0
KPG1 100130Z 02015KT 10/05 A3031 RMK A01 T00990047  RH  070%=      5-min Rain = 0
KPG1 100131Z 02014KT 10/05 A3031 RMK A01 T00990047  RH  070%=      5-min Rain = 0
KPG1 100132Z 02016KT 10/05 A3031 RMK A01 T00990047  RH  070%=      5-min Rain = 0
KPG1 100133Z 03013KT 10/05 A3032 RMK A01 T00990047  RH  070%=      5-min Rain = 0
KPG1 100134Z 02013KT 10/05 A3032 RMK A01 T00990048  RH  071%=      5-min Rain = 0
KPG1 100135Z 02014KT 10/05 A3032 RMK A01 T00980048  RH  071%=      5-min Rain = 0
KPG1 100136Z 03014KT 10/05 A3032 RMK A01 T00970048  RH  072%=      5-min Rain = 0
KPG1 100137Z 02013KT 10/05 A3032 RMK A01 T00970048  RH  072%=      5-min Rain = 0
KPG1 100138Z 02015KT 10/05 A3032 RMK A01 T00970048  RH  072%=      5-min Rain = 0
KPG1 100139Z 02015KT 10/05 A3032 RMK A01 T00970047  RH  071%=      5-min Rain = 0
KPG1 100140Z 02015KT 10/05 A3032 RMK A01 T00970047  RH  071%=      5-min Rain = 0
KPG1 100141Z 02013KT 10/05 A3032 RMK A01 T00970047  RH  071%=      5-min Rain = 0
KPG1 100142Z 02015KT 10/05 A3032 RMK A01 T00970047  RH  071%=      5-min Rain = 0
KPG1 100143Z 02015KT 10/05 A3032 RMK A01 T00980046  RH  070%=      5-min Rain = 0
KPG1 100144Z 02016KT 10/05 A3032 RMK A01 T00980046  RH  070%=      5-min Rain = 0
KPG1 100145Z 02012KT 10/05 A3032 RMK A01 T00990046  RH  070%=      5-min Rain = 0
KPG1 100146Z 02014KT 10/05 A3032 RMK A01 T00980047  RH  070%=      5-min Rain = 0
KPG1 100147Z 02013KT 10/05 A3032 RMK A01 T00980047  RH  070%=      5-min Rain = 0
KPG1 100148Z 02014KT 10/05 A3032 RMK A01 T00980047  RH  070%=      5-min Rain = 0
KPG1 100149Z 02014KT 10/05 A3032 RMK A01 T00980047  RH  071%=      5-min Rain = 0
KPG1 100150Z 02014KT 10/05 A3032 RMK A01 T00980047  RH  071%=      5-min Rain = 0
KPG1 100151Z 01014KT 10/05 A3032 RMK A01 T00980046  RH  070%=      5-min Rain = 0
KPG1 100152Z 01015KT 10/05 A3032 RMK A01 T00980045  RH  070%=      5-min Rain = 0
KPG1 100153Z 01016KT 10/05 A3032 RMK A01 T00980045  RH  070%=      5-min Rain = 0
KPG1 100154Z 01015KT 10/05 A3032 RMK A01 T00980045  RH  070%=      5-min Rain = 0
KPG1 100155Z 02014KT 10/05 A3032 RMK A01 T00980045  RH  069%=      5-min Rain = 0
KPG1 100156Z 02014KT 10/05 A3032 RMK A01 T00980045  RH  070%=      5-min Rain = 0
KPG1 100157Z 02014KT 10/05 A3032 RMK A01 T00980045  RH  070%=      5-min Rain = 0
KPG1 100158Z 02014KT 10/05 A3032 RMK A01 T00980045  RH  070%=      5-min Rain = 0
KPG1 100159Z 02013KT 10/05 A3032 RMK A01 T00970046  RH  070%=      5-min Rain = 0
KPG1 100200Z 02014KT 10/05 A3032 RMK A01 T00970046  RH  070%=      5-min Rain = 0
KPG1 100201Z 01015KT 10/05 A3032 RMK A01 T00970045  RH  070%=      5-min Rain = 0
KPG1 100202Z 01014KT 10/05 A3033 RMK A01 T00970045  RH  070%=      5-min Rain = 0
KPG1 100203Z 01014KT 10/05 A3033 RMK A01 T00970045  RH  070%=      5-min Rain = 0
KPG1 100204Z 01015KT 10/05 A3033 RMK A01 T00970045  RH  070%=      5-min Rain = 0
KPG1 100205Z 02014KT 10/04 A3033 RMK A01 T00970044  RH  070%=      5-min Rain = 0
KPG1 100206Z 02014KT 10/05 A3033 RMK A01 T00970045  RH  070%=      5-min Rain = 0
KPG1 100207Z 01014KT 10/04 A3033 RMK A01 T00970044  RH  070%=      5-min Rain = 0
KPG1 100208Z 02014KT 10/04 A3033 RMK A01 T00970044  RH  070%=      5-min Rain = 0
KPG1 100209Z 02013KT 10/05 A3033 RMK A01 T00970045  RH  070%=      5-min Rain = 0
KPG1 100210Z 01015KT 10/05 A3033 RMK A01 T00970045  RH  070%=      5-min Rain = 0
KPG1 100211Z 02014KT 10/04 A3033 RMK A01 T00970044  RH  070%=      5-min Rain = 0
KPG1 100212Z 01014KT 10/05 A3033 RMK A01 T00970045  RH  070%=      5-min Rain = 0
KPG1 100213Z 01013KT 10/05 A3033 RMK A01 T00970045  RH  070%=      5-min Rain = 0
KPG1 100214Z 01014KT 10/05 A3033 RMK A01 T00970045  RH  070%=      5-min Rain = 0
KPG1 100215Z 02015KT 10/04 A3033 RMK A01 T00970044  RH  070%=      5-min Rain = 0
KPG1 100216Z 02014KT 10/04 A3033 RMK A01 T00970044  RH  069%=      5-min Rain = 0
KPG1 100217Z 02015KT 10/04 A3033 RMK A01 T00970044  RH  069%=      5-min Rain = 0
KPG1 100218Z 02015KT 10/04 A3033 RMK A01 T00970044  RH  070%=      5-min Rain = 0
KPG1 100219Z 01013KT 10/04 A3033 RMK A01 T00970044  RH  070%=      5-min Rain = 0
KPG1 100220Z 02014KT 10/04 A3033 RMK A01 T00970044  RH  070%=      5-min Rain = 0
KPG1 100221Z 02014KT 10/04 A3033 RMK A01 T00970043  RH  069%=      5-min Rain = 0
KPG1 100222Z 01013KT 10/04 A3033 RMK A01 T00970043  RH  069%=      5-min Rain = 0
KPG1 100223Z 02013KT 10/04 A3033 RMK A01 T00970044  RH  070%=      5-min Rain = 0
KPG1 100224Z 01015KT 10/04 A3034 RMK A01 T00970044  RH  070%=      5-min Rain = 0
KPG1 100225Z 01014KT 10/04 A3034 RMK A01 T00970044  RH  070%=      5-min Rain = 0
KPG1 100226Z 01013KT 10/05 A3034 RMK A01 T00970045  RH  070%=      5-min Rain = 0
KPG1 100227Z 02012KT 10/04 A3034 RMK A01 T00960044  RH  070%=      5-min Rain = 0
KPG1 100228Z 01014KT 10/04 A3034 RMK A01 T00960044  RH  070%=      5-min Rain = 0
KPG1 100229Z 00013KT 10/04 A3034 RMK A01 T00960044  RH  070%=      5-min Rain = 0
KPG1 100230Z 01015KT 10/04 A3034 RMK A01 T00960044  RH  070%=      5-min Rain = 0
KPG1 100231Z 01014KT 10/04 A3034 RMK A01 T00960044  RH  070%=      5-min Rain = 0
KPG1 100232Z 00016KT 10/04 A3034 RMK A01 T00950044  RH  070%=      5-min Rain = 0
KPG1 100233Z 00015KT 10/04 A3034 RMK A01 T00950044  RH  070%=      5-min Rain = 0
KPG1 100234Z 01014KT 10/04 A3034 RMK A01 T00950044  RH  071%=      5-min Rain = 0
KPG1 100235Z 01015KT 10/04 A3034 RMK A01 T00950044  RH  071%=      5-min Rain = 0
KPG1 100236Z 01014KT 09/04 A3034 RMK A01 T00940044  RH  071%=      5-min Rain = 0
KPG1 100237Z 00016KT 09/04 A3034 RMK A01 T00940044  RH  071%=      5-min Rain = 0
KPG1 100238Z 01016KT 09/04 A3034 RMK A01 T00940044  RH  071%=      5-min Rain = 0
KPG1 100239Z 01015KT 09/04 A3034 RMK A01 T00940043  RH  071%=      5-min Rain = 0
KPG1 100240Z 00016KT 09/04 A3034 RMK A01 T00940043  RH  071%=      5-min Rain = 0
KPG1 100241Z 01015KT 09/04 A3034 RMK A01 T00940043  RH  070%=      5-min Rain = 0
KPG1 100242Z 01015KT 09/04 A3034 RMK A01 T00940043  RH  071%=      5-min Rain = 0
KPG1 100243Z 00014KT 09/04 A3034 RMK A01 T00940043  RH  071%=      5-min Rain = 0
KPG1 100244Z 36014KT 09/04 A3034 RMK A01 T00940044  RH  071%=      5-min Rain = 0
KPG1 100245Z 00015KT 09/04 A3034 RMK A01 T00930044  RH  071%=      5-min Rain = 0
KPG1 100246Z 01015KT 09/04 A3034 RMK A01 T00930043  RH  071%=      5-min Rain = 0
KPG1 100247Z 01015KT 09/04 A3034 RMK A01 T00930043  RH  071%=      5-min Rain = 0
KPG1 100248Z 00015KT 09/04 A3034 RMK A01 T00930042  RH  071%=      5-min Rain = 0
KPG1 100249Z 01016KT 09/04 A3034 RMK A01 T00930043  RH  071%=      5-min Rain = 0
KPG1 100250Z 00014KT 09/04 A3035 RMK A01 T00930042  RH  071%=      5-min Rain = 0
KPG1 100251Z 01014KT 09/04 A3035 RMK A01 T00930042  RH  070%=      5-min Rain = 0
KPG1 100252Z 00016KT 09/04 A3035 RMK A01 T00930042  RH  070%=      5-min Rain = 0
KPG1 100253Z 01016KT 09/04 A3035 RMK A01 T00930042  RH  070%=      5-min Rain = 0
KPG1 100254Z 01015KT 09/04 A3035 RMK A01 T00930042  RH  070%=      5-min Rain = 0
KPG1 100255Z 01016KT 09/04 A3035 RMK A01 T00930042  RH  070%=      5-min Rain = 0
KPG1 100256Z 01016KT 09/04 A3035 RMK A01 T00920042  RH  071%=      5-min Rain = 0
KPG1 100257Z 01015KT 09/04 A3035 RMK A01 T00930042  RH  070%=      5-min Rain = 0
KPG1 100258Z 00016KT 09/04 A3035 RMK A01 T00920042  RH  071%=      5-min Rain = 0
KPG1 100259Z 00015KT 09/04 A3035 RMK A01 T00920042  RH  071%=      5-min Rain = 0
KPG1 100300Z 00015KT 09/04 A3035 RMK A01 T00920042  RH  071%=      5-min Rain = 0
KPG1 100301Z 01016KT 09/04 A3035 RMK A01 T00920042  RH  071%=      5-min Rain = 0
KPG1 100302Z 00016KT 09/04 A3035 RMK A01 T00920041  RH  070%=      5-min Rain = 0
KPG1 100303Z 00015KT 09/04 A3035 RMK A01 T00920041  RH  071%=      5-min Rain = 0
KPG1 100304Z 00015KT 09/04 A3035 RMK A01 T00920041  RH  071%=      5-min Rain = 0
KPG1 100305Z 00014KT 09/04 A3035 RMK A01 T00910042  RH  071%=      5-min Rain = 0
KPG1 100306Z 00016KT 09/04 A3035 RMK A01 T00910041  RH  071%=      5-min Rain = 0
KPG1 100307Z 01016KT 09/04 A3035 RMK A01 T00910042  RH  071%=      5-min Rain = 0
KPG1 100308Z 00017KT 09/04 A3035 RMK A01 T00910041  RH  071%=      5-min Rain = 0
KPG1 100309Z 01016KT 09/04 A3035 RMK A01 T00910041  RH  071%=      5-min Rain = 0
KPG1 100310Z 00017KT 09/04 A3035 RMK A01 T00910041  RH  071%=      5-min Rain = 0
KPG1 100311Z 00015KT 09/04 A3035 RMK A01 T00910040  RH  070%=      5-min Rain = 0
KPG1 100312Z 00015KT 09/04 A3035 RMK A01 T00910040  RH  070%=      5-min Rain = 0
KPG1 100313Z 01016KT 09/04 A3035 RMK A01 T00910041  RH  071%=      5-min Rain = 0
KPG1 100314Z 00017KT 09/04 A3035 RMK A01 T00910040  RH  071%=      5-min Rain = 0
KPG1 100315Z 01016KT 09/04 A3035 RMK A01 T00910040  RH  070%=      5-min Rain = 0
KPG1 100316Z 00017KT 09/04 A3035 RMK A01 T00910040  RH  070%=      5-min Rain = 0
KPG1 100317Z 00016KT 09/04 A3035 RMK A01 T00910041  RH  071%=      5-min Rain = 0
KPG1 100318Z 00017KT 09/04 A3035 RMK A01 T00910040  RH  071%=      5-min Rain = 0
KPG1 100319Z 01017KT 09/04 A3035 RMK A01 T00900040  RH  071%=      5-min Rain = 0
KPG1 100320Z 00017KT 09/04 A3035 RMK A01 T00910041  RH  071%=      5-min Rain = 0
KPG1 100321Z 01017KT 09/04 A3035 RMK A01 T00900040  RH  071%=      5-min Rain = 0
KPG1 100322Z 00015KT 09/04 A3035 RMK A01 T00900040  RH  071%=      5-min Rain = 0
KPG1 100323Z 36015KT 09/04 A3035 RMK A01 T00890041  RH  072%=      5-min Rain = 0
KPG1 100324Z 00015KT 09/04 A3035 RMK A01 T00890041  RH  072%=      5-min Rain = 0
KPG1 100325Z 00014KT 09/04 A3036 RMK A01 T00890041  RH  072%=      5-min Rain = 0
KPG1 100326Z 00015KT 09/04 A3036 RMK A01 T00880041  RH  072%=      5-min Rain = 0
KPG1 100327Z 00015KT 09/04 A3036 RMK A01 T00880040  RH  072%=      5-min Rain = 0
KPG1 100328Z 00017KT 09/04 A3035 RMK A01 T00880040  RH  071%=      5-min Rain = 0
KPG1 100329Z 00017KT 09/04 A3035 RMK A01 T00890040  RH  072%=      5-min Rain = 0
KPG1 100330Z 01016KT 09/04 A3035 RMK A01 T00880040  RH  071%=      5-min Rain = 0
KPG1 100331Z 00017KT 09/04 A3036 RMK A01 T00880039  RH  071%=      5-min Rain = 0
KPG1 100332Z 00016KT 09/04 A3036 RMK A01 T00880039  RH  071%=      5-min Rain = 0
KPG1 100333Z 00017KT 09/04 A3036 RMK A01 T00890039  RH  071%=      5-min Rain = 0
KPG1 100334Z 01015KT 09/04 A3036 RMK A01 T00890039  RH  071%=      5-min Rain = 0
KPG1 100335Z 00016KT 09/04 A3036 RMK A01 T00890039  RH  071%=      5-min Rain = 0
KPG1 100336Z 00016KT 09/04 A3036 RMK A01 T00880039  RH  071%=      5-min Rain = 0
KPG1 100337Z 00017KT 09/04 A3036 RMK A01 T00880039  RH  071%=      5-min Rain = 0
KPG1 100338Z 00016KT 09/04 A3036 RMK A01 T00880039  RH  071%=      5-min Rain = 0
KPG1 100339Z 00017KT 09/04 A3036 RMK A01 T00880039  RH  071%=      5-min Rain = 0
KPG1 100340Z 00016KT 09/04 A3036 RMK A01 T00880039  RH  071%=      5-min Rain = 0
KPG1 100341Z 00016KT 09/04 A3036 RMK A01 T00890039  RH  071%=      5-min Rain = 0
KPG1 100342Z 00018KT 09/04 A3036 RMK A01 T00880039  RH  071%=      5-min Rain = 0
KPG1 100343Z 00016KT 09/04 A3036 RMK A01 T00880039  RH  071%=      5-min Rain = 0
KPG1 100344Z 00015KT 09/04 A3036 RMK A01 T00880039  RH  071%=      5-min Rain = 0
KPG1 100345Z 00016KT 09/04 A3036 RMK A01 T00880039  RH  071%=      5-min Rain = 0
KPG1 100346Z 00016KT 09/04 A3036 RMK A01 T00880039  RH  071%=      5-min Rain = 0
KPG1 100347Z 00015KT 09/04 A3036 RMK A01 T00880039  RH  071%=      5-min Rain = 0
KPG1 100348Z 00015KT 09/04 A3036 RMK A01 T00870038  RH  071%=      5-min Rain = 0
KPG1 100349Z 00015KT 09/04 A3036 RMK A01 T00870038  RH  071%=      5-min Rain = 0
KPG1 100350Z 00017KT 09/04 A3036 RMK A01 T00870038  RH  072%=      5-min Rain = 0
KPG1 100351Z 00016KT 09/04 A3036 RMK A01 T00870038  RH  072%=      5-min Rain = 0
KPG1 100352Z 00017KT 09/04 A3036 RMK A01 T00870038  RH  071%=      5-min Rain = 0
KPG1 100353Z 00015KT 09/04 A3036 RMK A01 T00860037  RH  071%=      5-min Rain = 0
KPG1 100354Z 01015KT 09/04 A3036 RMK A01 T00870037  RH  071%=      5-min Rain = 0
KPG1 100355Z 00015KT 09/04 A3036 RMK A01 T00870038  RH  071%=      5-min Rain = 0
KPG1 100356Z 01014KT 09/04 A3036 RMK A01 T00870038  RH  071%=      5-min Rain = 0
KPG1 100357Z 00016KT 09/04 A3036 RMK A01 T00870037  RH  071%=      5-min Rain = 0
KPG1 100358Z 01014KT 09/04 A3036 RMK A01 T00870038  RH  071%=      5-min Rain = 0
KPG1 100359Z 00015KT 09/04 A3036 RMK A01 T00860038  RH  072%=      5-min Rain = 0
KPG1 100400Z 00016KT 09/04 A3036 RMK A01 T00860038  RH  072%=      5-min Rain = 0
KPG1 100401Z 01015KT 09/04 A3037 RMK A01 T00860038  RH  072%=      5-min Rain = 0
KPG1 100402Z 01016KT 09/04 A3036 RMK A01 T00860037  RH  071%=      5-min Rain = 0
KPG1 100403Z 01015KT 09/04 A3036 RMK A01 T00860037  RH  071%=      5-min Rain = 0
KPG1 100404Z 01015KT 09/04 A3036 RMK A01 T00860036  RH  071%=      5-min Rain = 0
KPG1 100405Z 00017KT 09/04 A3036 RMK A01 T00860036  RH  071%=      5-min Rain = 0
KPG1 100406Z 00017KT 09/04 A3036 RMK A01 T00860036  RH  071%=      5-min Rain = 0
KPG1 100407Z 00018KT 09/04 A3036 RMK A01 T00860036  RH  071%=      5-min Rain = 0
KPG1 100408Z 00017KT 09/04 A3036 RMK A01 T00860036  RH  071%=      5-min Rain = 0
KPG1 100409Z 00016KT 09/04 A3036 RMK A01 T00860036  RH  071%=      5-min Rain = 0
KPG1 100410Z 00016KT 09/04 A3036 RMK A01 T00860036  RH  071%=      5-min Rain = 0
KPG1 100411Z 00016KT 09/04 A3037 RMK A01 T00860036  RH  071%=      5-min Rain = 0
KPG1 100412Z 00017KT 09/04 A3037 RMK A01 T00860036  RH  071%=      5-min Rain = 0
KPG1 100413Z 01017KT 09/04 A3037 RMK A01 T00860035  RH  071%=      5-min Rain = 0
KPG1 100414Z 01015KT 09/04 A3036 RMK A01 T00860035  RH  070%=      5-min Rain = 0
KPG1 100415Z 01015KT 09/04 A3036 RMK A01 T00860035  RH  070%=      5-min Rain = 0
KPG1 100416Z 01016KT 09/04 A3036 RMK A01 T00860035  RH  070%=      5-min Rain = 0
KPG1 100417Z 00016KT 09/04 A3036 RMK A01 T00860035  RH  070%=      5-min Rain = 0
KPG1 100418Z 00017KT 09/04 A3036 RMK A01 T00860035  RH  070%=      5-min Rain = 0
KPG1 100419Z 01017KT 09/04 A3036 RMK A01 T00850035  RH  071%=      5-min Rain = 0
KPG1 100420Z 00017KT 09/04 A3036 RMK A01 T00850035  RH  071%=      5-min Rain = 0
KPG1 100421Z 00017KT 09/03 A3036 RMK A01 T00850034  RH  071%=      5-min Rain = 0
KPG1 100422Z 00017KT 09/04 A3036 RMK A01 T00850035  RH  071%=      5-min Rain = 0
KPG1 100423Z 00017KT 09/04 A3037 RMK A01 T00850035  RH  071%=      5-min Rain = 0
KPG1 100424Z 00017KT 09/04 A3037 RMK A01 T00850035  RH  071%=      5-min Rain = 0
KPG1 100425Z 00017KT 09/04 A3037 RMK A01 T00850035  RH  071%=      5-min Rain = 0
KPG1 100426Z 01015KT 09/04 A3037 RMK A01 T00850035  RH  071%=      5-min Rain = 0
KPG1 100427Z 01016KT 08/04 A3037 RMK A01 T00840035  RH  071%=      5-min Rain = 0
KPG1 100428Z 00017KT 08/03 A3037 RMK A01 T00840034  RH  071%=      5-min Rain = 0
KPG1 100429Z 00016KT 08/03 A3037 RMK A01 T00840034  RH  071%=      5-min Rain = 0
KPG1 100430Z 00016KT 08/03 A3037 RMK A01 T00840034  RH  071%=      5-min Rain = 0
KPG1 100431Z 01016KT 08/03 A3037 RMK A01 T00840034  RH  071%=      5-min Rain = 0
KPG1 100432Z 01016KT 08/03 A3037 RMK A01 T00840034  RH  071%=      5-min Rain = 0
KPG1 100433Z 01014KT 08/03 A3037 RMK A01 T00830033  RH  071%=      5-min Rain = 0
KPG1 100434Z 01016KT 08/03 A3037 RMK A01 T00830033  RH  071%=      5-min Rain = 0
KPG1 100435Z 01014KT 08/03 A3037 RMK A01 T00830033  RH  071%=      5-min Rain = 0
KPG1 100436Z 01014KT 08/03 A3037 RMK A01 T00830033  RH  071%=      5-min Rain = 0
KPG1 100437Z 01014KT 08/03 A3037 RMK A01 T00830033  RH  071%=      5-min Rain = 0
KPG1 100438Z 02014KT 08/03 A3037 RMK A01 T00820033  RH  071%=      5-min Rain = 0
KPG1 100439Z 01015KT 08/03 A3037 RMK A01 T00820033  RH  071%=      5-min Rain = 0
KPG1 100440Z 01014KT 08/03 A3037 RMK A01 T00820032  RH  071%=      5-min Rain = 0
KPG1 100441Z 01015KT 08/03 A3037 RMK A01 T00820033  RH  071%=      5-min Rain = 0
KPG1 100442Z 02014KT 08/03 A3037 RMK A01 T00820033  RH  071%=      5-min Rain = 0
KPG1 100443Z 01016KT 08/03 A3038 RMK A01 T00820033  RH  071%=      5-min Rain = 0
KPG1 100444Z 01016KT 08/03 A3038 RMK A01 T00820033  RH  071%=      5-min Rain = 0
KPG1 100445Z 00016KT 08/03 A3038 RMK A01 T00810032  RH  071%=      5-min Rain = 0
KPG1 100446Z 00018KT 08/03 A3037 RMK A01 T00820032  RH  071%=      5-min Rain = 0
KPG1 100447Z 01017KT 08/03 A3037 RMK A01 T00810032  RH  071%=      5-min Rain = 0
KPG1 100448Z 00017KT 08/03 A3038 RMK A01 T00810032  RH  071%=      5-min Rain = 0
KPG1 100449Z 00016KT 08/03 A3038 RMK A01 T00820032  RH  071%=      5-min Rain = 0
KPG1 100450Z 01015KT 08/03 A3038 RMK A01 T00810032  RH  071%=      5-min Rain = 0
KPG1 100451Z 00015KT 08/03 A3038 RMK A01 T00810032  RH  071%=      5-min Rain = 0
KPG1 100452Z 01017KT 08/03 A3038 RMK A01 T00810032  RH  071%=      5-min Rain = 0
KPG1 100453Z 01015KT 08/03 A3038 RMK A01 T00810032  RH  071%=      5-min Rain = 0
KPG1 100454Z 01015KT 08/03 A3038 RMK A01 T00800032  RH  072%=      5-min Rain = 0
KPG1 100455Z 01015KT 08/03 A3038 RMK A01 T00800032  RH  072%=      5-min Rain = 0
KPG1 100456Z 00016KT 08/03 A3038 RMK A01 T00800032  RH  072%=      5-min Rain = 0
KPG1 100457Z 00017KT 08/03 A3038 RMK A01 T00800032  RH  072%=      5-min Rain = 0
KPG1 100458Z 01017KT 08/03 A3038 RMK A01 T00800032  RH  072%=      5-min Rain = 0
KPG1 100459Z 01016KT 08/03 A3038 RMK A01 T00800032  RH  072%=      5-min Rain = 0
KPG1 100500Z 00018KT 08/03 A3038 RMK A01 T00790032  RH  072%=      5-min Rain = 0
KPG1 100501Z 00016KT 08/03 A3038 RMK A01 T00790032  RH  072%=      5-min Rain = 0
KPG1 100502Z 00016KT 08/03 A3038 RMK A01 T00790031  RH  072%=      5-min Rain = 0
KPG1 100503Z 00016KT 08/03 A3038 RMK A01 T00790031  RH  072%=      5-min Rain = 0
KPG1 100504Z 00016KT 08/03 A3038 RMK A01 T00790031  RH  072%=      5-min Rain = 0
KPG1 100505Z 00016KT 08/03 A3038 RMK A01 T00790031  RH  072%=      5-min Rain = 0
KPG1 100506Z 36017KT 08/03 A3037 RMK A01 T00790031  RH  072%=      5-min Rain = 0
KPG1 100507Z 36017KT 08/03 A3037 RMK A01 T00790030  RH  072%=      5-min Rain = 0
KPG1 100508Z 00017KT 08/03 A3037 RMK A01 T00790030  RH  071%=      5-min Rain = 0
KPG1 100509Z 36015KT 08/03 A3037 RMK A01 T00790031  RH  071%=      5-min Rain = 0
KPG1 100510Z 00018KT 08/03 A3037 RMK A01 T00780030  RH  072%=      5-min Rain = 0
KPG1 100511Z 00016KT 08/03 A3037 RMK A01 T00780030  RH  071%=      5-min Rain = 0
KPG1 100512Z 01014KT 08/03 A3038 RMK A01 T00780030  RH  071%=      5-min Rain = 0
KPG1 100513Z 00014G19KT 08/03 A3038 RMK A01 T00780030  RH  072%=      5-min Rain = 0
KPG1 100514Z 01014KT 08/03 A3038 RMK A01 T00780030  RH  072%=      5-min Rain = 0
KPG1 100515Z 00016KT 08/03 A3038 RMK A01 T00780030  RH  072%=      5-min Rain = 0
KPG1 100516Z 00017KT 08/03 A3038 RMK A01 T00770030  RH  072%=      5-min Rain = 0
KPG1 100517Z 01015KT 08/03 A3038 RMK A01 T00770030  RH  072%=      5-min Rain = 0
KPG1 100518Z 00017KT 08/03 A3038 RMK A01 T00770030  RH  072%=      5-min Rain = 0
KPG1 100519Z 00017KT 08/03 A3038 RMK A01 T00780030  RH  072%=      5-min Rain = 0
KPG1 100520Z 00016KT 08/03 A3038 RMK A01 T00780030  RH  072%=      5-min Rain = 0
KPG1 100521Z 01015KT 08/03 A3038 RMK A01 T00770029  RH  072%=      5-min Rain = 0
KPG1 100522Z 00016KT 08/03 A3038 RMK A01 T00770029  RH  072%=      5-min Rain = 0
KPG1 100523Z 01015KT 08/03 A3038 RMK A01 T00770029  RH  072%=      5-min Rain = 0
KPG1 100524Z 01016KT 08/03 A3038 RMK A01 T00770029  RH  072%=      5-min Rain = 0
KPG1 100525Z 01015KT 08/03 A3038 RMK A01 T00770029  RH  072%=      5-min Rain = 0
KPG1 100526Z 00014KT 08/03 A3038 RMK A01 T00770029  RH  072%=      5-min Rain = 0
KPG1 100527Z 01014KT 08/03 A3038 RMK A01 T00770029  RH  072%=      5-min Rain = 0
KPG1 100528Z 01015KT 08/03 A3038 RMK A01 T00770029  RH  072%=      5-min Rain = 0
KPG1 100529Z 00014KT 08/03 A3038 RMK A01 T00770029  RH  072%=      5-min Rain = 0
KPG1 100530Z 00015KT 08/03 A3038 RMK A01 T00760029  RH  072%=      5-min Rain = 0
KPG1 100531Z 00015KT 08/03 A3038 RMK A01 T00760029  RH  072%=      5-min Rain = 0
KPG1 100532Z 01015KT 08/03 A3038 RMK A01 T00770029  RH  072%=      5-min Rain = 0
KPG1 100533Z 00014KT 08/03 A3038 RMK A01 T00770029  RH  072%=      5-min Rain = 0
KPG1 100534Z 00013KT 08/03 A3038 RMK A01 T00760029  RH  072%=      5-min Rain = 0
KPG1 100535Z 01015KT 08/03 A3038 RMK A01 T00750029  RH  072%=      5-min Rain = 0
KPG1 100536Z 00014KT 08/03 A3038 RMK A01 T00750029  RH  072%=      5-min Rain = 0
KPG1 100537Z 00013KT 08/03 A3038 RMK A01 T00750029  RH  073%=      5-min Rain = 0
KPG1 100538Z 00014KT 08/03 A3038 RMK A01 T00750029  RH  073%=      5-min Rain = 0
KPG1 100539Z 00014KT 07/03 A3038 RMK A01 T00740029  RH  073%=      5-min Rain = 0
KPG1 100540Z 01015KT 07/03 A3038 RMK A01 T00740029  RH  073%=      5-min Rain = 0
KPG1 100541Z 01015KT 07/03 A3038 RMK A01 T00740029  RH  073%=      5-min Rain = 0
KPG1 100542Z 01014KT 07/03 A3038 RMK A01 T00740029  RH  073%=      5-min Rain = 0
KPG1 100543Z 01015KT 07/03 A3038 RMK A01 T00740030  RH  073%=      5-min Rain = 0
KPG1 100544Z 00015KT 07/03 A3038 RMK A01 T00740030  RH  073%=      5-min Rain = 0
KPG1 100545Z 00014KT 07/03 A3038 RMK A01 T00740030  RH  074%=      5-min Rain = 0
KPG1 100546Z 01014KT 07/03 A3038 RMK A01 T00730030  RH  074%=      5-min Rain = 0
KPG1 100547Z 00015KT 07/03 A3038 RMK A01 T00730030  RH  074%=      5-min Rain = 0
KPG1 100548Z 01015KT 07/03 A3038 RMK A01 T00730029  RH  074%=      5-min Rain = 0
KPG1 100549Z 01014KT 07/03 A3038 RMK A01 T00720030  RH  074%=      5-min Rain = 0
KPG1 100550Z 01014KT 07/03 A3038 RMK A01 T00720030  RH  075%=      5-min Rain = 0
KPG1 100551Z 01015KT 07/03 A3038 RMK A01 T00720030  RH  075%=      5-min Rain = 0
KPG1 100552Z 00016KT 07/03 A3038 RMK A01 T00720030  RH  075%=      5-min Rain = 0
KPG1 100553Z 01015KT 07/03 A3038 RMK A01 T00720030  RH  075%=      5-min Rain = 0
KPG1 100554Z 01013KT 07/03 A3038 RMK A01 T00720030  RH  075%=      5-min Rain = 0
KPG1 100555Z 00015KT 07/03 A3038 RMK A01 T00710030  RH  075%=      5-min Rain = 0
KPG1 100556Z 00015KT 07/03 A3038 RMK A01 T00710030  RH  075%=      5-min Rain = 0
KPG1 100557Z 36015KT 07/03 A3038 RMK A01 T00710030  RH  075%=      5-min Rain = 0
KPG1 100558Z 00015KT 07/03 A3038 RMK A01 T00710030  RH  075%=      5-min Rain = 0
KPG1 100559Z 01014KT 07/03 A3038 RMK A01 T00700030  RH  075%=      5-min Rain = 0

Page generated in 0.1518 seconds.